Time,TemperatureF,DewpointF,PressureIn,WindDirection,WindDirectionDegrees,WindSpeedMPH,WindSpeedGustMPH,Humidity,HourlyPrecipIn,Conditions,Clouds,dailyrainin,SoftwareType,DateUTC
2013-08-21 00:00:00,71.5,37.5,29.86,WNW,293,11.6,12.1,29,0.00,,,0.00,WUHU216HW,2013-08-21 06:00:00,
2013-08-21 00:02:00,71.6,36.6,29.87,WNW,293,11.4,12.1,28,0.00,,,0.00,WUHU216HW,2013-08-21 06:02:00,
2013-08-21 00:04:00,72.0,36.9,29.87,NW,315,8.1,12.1,28,0.00,,,0.00,WUHU216HW,2013-08-21 06:04:00,
2013-08-21 00:05:00,72.0,36.9,29.87,WNW,293,11.0,12.1,28,0.00,,,0.00,WUHU216HW,2013-08-21 06:05:00,
2013-08-21 00:06:00,72.0,36.9,29.87,WNW,293,11.9,12.1,28,0.00,,,0.00,WUHU216HW,2013-08-21 06:06:00,
2013-08-21 00:07:00,72.0,36.9,29.87,WNW,293,10.1,14.3,28,0.00,,,0.00,WUHU216HW,2013-08-21 06:07:00,
2013-08-21 00:09:00,71.8,36.8,29.87,NW,315,11.9,14.3,28,0.00,,,0.00,WUHU216HW,2013-08-21 06:09:00,
2013-08-21 00:10:00,71.6,36.6,29.87,NW,315,9.2,14.3,28,0.00,,,0.00,WUHU216HW,2013-08-21 06:10:00,
2013-08-21 00:11:00,71.6,36.6,29.87,NW,315,10.3,14.3,28,0.00,,,0.00,WUHU216HW,2013-08-21 06:11:00,
2013-08-21 00:13:00,71.3,37.4,29.87,NW,315,10.7,14.3,29,0.00,,,0.00,WUHU216HW,2013-08-21 06:13:00,
2013-08-21 00:15:00,70.9,37.0,29.87,NW,315,12.3,14.3,29,0.00,,,0.00,WUHU216HW,2013-08-21 06:15:00,
2013-08-21 00:16:00,70.9,37.0,29.87,NW,315,8.5,14.3,29,0.00,,,0.00,WUHU216HW,2013-08-21 06:16:00,
2013-08-21 00:18:00,70.4,36.5,29.87,NNW,338,10.5,12.5,29,0.00,,,0.00,WUHU216HW,2013-08-21 06:18:00,
2013-08-21 00:20:00,70.2,36.4,29.87,NW,315,11.0,12.5,29,0.00,,,0.00,WUHU216HW,2013-08-21 06:20:00,
2013-08-21 00:21:00,70.2,37.5,29.87,NW,315,10.5,12.5,30,0.00,,,0.00,WUHU216HW,2013-08-21 06:21:00,
2013-08-21 00:23:00,70.0,37.3,29.87,NW,315,10.5,12.5,30,0.00,,,0.00,WUHU216HW,2013-08-21 06:23:00,
2013-08-21 00:25:00,70.0,37.3,29.87,NW,315,12.8,12.8,30,0.00,,,0.00,WUHU216HW,2013-08-21 06:25:00,
2013-08-21 00:26:00,70.0,37.3,29.87,NW,315,11.4,13.4,30,0.00,,,0.00,WUHU216HW,2013-08-21 06:26:00,
2013-08-21 00:28:00,70.2,37.5,29.87,NW,315,17.0,17.7,30,0.00,,,0.00,WUHU216HW,2013-08-21 06:28:00,
2013-08-21 00:30:00,70.7,36.9,29.87,WNW,293,11.6,17.7,29,0.00,,,0.00,WUHU216HW,2013-08-21 06:30:00,
2013-08-21 00:31:00,70.9,37.0,29.87,NW,315,14.1,17.7,29,0.00,,,0.00,WUHU216HW,2013-08-21 06:31:00,
2013-08-21 00:32:00,71.1,37.2,29.87,WNW,293,14.3,17.7,29,0.00,,,0.00,WUHU216HW,2013-08-21 06:32:00,
2013-08-21 00:33:00,71.5,37.5,29.87,NW,315,13.2,17.7,29,0.00,,,0.00,WUHU216HW,2013-08-21 06:33:00,
2013-08-21 00:35:00,71.6,37.7,29.88,WNW,293,13.0,17.7,29,0.00,,,0.00,WUHU216HW,2013-08-21 06:35:00,
2013-08-21 00:36:00,71.6,37.7,29.88,NW,315,15.2,17.7,29,0.00,,,0.00,WUHU216HW,2013-08-21 06:36:00,
2013-08-21 00:37:00,71.8,37.8,29.87,NW,315,15.7,17.7,29,0.00,,,0.00,WUHU216HW,2013-08-21 06:37:00,
2013-08-21 00:38:00,71.8,36.8,29.87,NW,315,17.2,17.2,28,0.00,,,0.00,WUHU216HW,2013-08-21 06:38:00,
2013-08-21 00:40:00,72.0,36.9,29.87,NW,315,14.1,18.6,28,0.00,,,0.00,WUHU216HW,2013-08-21 06:40:00,
2013-08-21 00:41:00,72.0,38.0,29.87,NW,315,15.4,18.6,29,0.00,,,0.00,WUHU216HW,2013-08-21 06:41:00,
2013-08-21 00:42:00,72.0,38.0,29.87,NW,315,15.4,18.6,29,0.00,,,0.00,WUHU216HW,2013-08-21 06:42:00,
2013-08-21 00:44:00,72.0,38.0,29.88,NW,315,10.5,18.6,29,0.00,,,0.00,WUHU216HW,2013-08-21 06:44:00,
2013-08-21 00:45:00,72.0,38.0,29.88,NW,315,14.8,18.6,29,0.00,,,0.00,WUHU216HW,2013-08-21 06:45:00,
2013-08-21 00:46:00,72.0,36.9,29.88,NNW,338,16.8,18.6,28,0.00,,,0.00,WUHU216HW,2013-08-21 06:46:00,
2013-08-21 00:47:00,72.0,36.9,29.87,NW,315,15.9,18.6,28,0.00,,,0.00,WUHU216HW,2013-08-21 06:47:00,
2013-08-21 00:49:00,72.0,36.9,29.87,NW,315,13.4,18.6,28,0.00,,,0.00,WUHU216HW,2013-08-21 06:49:00,
2013-08-21 00:50:00,71.8,37.8,29.87,NW,315,13.6,17.2,29,0.00,,,0.00,WUHU216HW,2013-08-21 06:50:00,
2013-08-21 00:51:00,72.0,36.9,29.88,NW,315,14.3,17.2,28,0.00,,,0.00,WUHU216HW,2013-08-21 06:51:00,
2013-08-21 00:53:00,71.8,37.8,29.88,NW,315,16.6,17.2,29,0.00,,,0.00,WUHU216HW,2013-08-21 06:53:00,
2013-08-21 00:54:00,71.6,37.7,29.88,NW,315,16.3,17.2,29,0.00,,,0.00,WUHU216HW,2013-08-21 06:54:00,
2013-08-21 00:55:00,71.6,37.7,29.88,NW,315,13.9,16.8,29,0.00,,,0.00,WUHU216HW,2013-08-21 06:55:00,
2013-08-21 00:56:00,71.6,37.7,29.88,NW,315,13.9,16.8,29,0.00,,,0.00,WUHU216HW,2013-08-21 06:56:00,
2013-08-21 00:58:00,71.5,37.5,29.88,NW,315,12.1,16.6,29,0.00,,,0.00,WUHU216HW,2013-08-21 06:58:00,
2013-08-21 01:00:00,71.3,37.4,29.88,NNW,338,15.0,16.6,29,0.00,,,0.00,WUHU216HW,2013-08-21 07:00:00,
2013-08-21 01:01:00,71.3,37.4,29.88,NW,315,10.7,16.6,29,0.00,,,0.00,WUHU216HW,2013-08-21 07:01:00,
2013-08-21 01:03:00,71.3,37.4,29.88,NW,315,12.5,16.3,29,0.00,,,0.00,WUHU216HW,2013-08-21 07:03:00,
2013-08-21 01:05:00,71.3,37.4,29.89,NW,315,12.8,15.0,29,0.00,,,0.00,WUHU216HW,2013-08-21 07:05:00,
2013-08-21 01:06:00,71.1,37.2,29.89,WNW,293,11.2,15.0,29,0.00,,,0.00,WUHU216HW,2013-08-21 07:06:00,
2013-08-21 01:07:00,71.1,37.2,29.89,NW,315,11.2,15.0,29,0.00,,,0.00,WUHU216HW,2013-08-21 07:07:00,
2013-08-21 01:08:00,70.9,37.0,29.89,NW,315,9.6,15.0,29,0.00,,,0.00,WUHU216HW,2013-08-21 07:08:00,
2013-08-21 01:11:00,70.9,37.0,29.89,WNW,293,9.6,15.0,29,0.00,,,0.00,WUHU216HW,2013-08-21 07:11:00,
2013-08-21 01:12:00,70.9,37.0,29.89,West,270,7.6,15.0,29,0.00,,,0.00,WUHU216HW,2013-08-21 07:12:00,
2013-08-21 01:13:00,70.7,36.9,29.89,West,270,9.2,15.0,29,0.00,,,0.00,WUHU216HW,2013-08-21 07:13:00,
2013-08-21 01:16:00,70.6,36.7,29.89,NW,315,11.4,11.4,29,0.00,,,0.00,WUHU216HW,2013-08-21 07:16:00,
2013-08-21 01:17:00,70.6,37.7,29.90,WNW,293,10.3,11.4,30,0.00,,,0.00,WUHU216HW,2013-08-21 07:17:00,
2013-08-21 01:19:00,70.6,37.7,29.89,WNW,293,9.2,11.4,30,0.00,,,0.00,WUHU216HW,2013-08-21 07:19:00,
2013-08-21 01:21:00,70.4,37.5,29.89,WNW,293,8.5,11.4,30,0.00,,,0.00,WUHU216HW,2013-08-21 07:21:00,
2013-08-21 01:22:00,70.4,37.5,29.90,West,270,8.5,11.4,30,0.00,,,0.00,WUHU216HW,2013-08-21 07:22:00,
2013-08-21 01:24:00,70.4,37.5,29.89,NW,315,8.3,11.4,30,0.00,,,0.00,WUHU216HW,2013-08-21 07:24:00,
2013-08-21 01:26:00,70.2,37.5,29.89,West,270,9.2,11.4,30,0.00,,,0.00,WUHU216HW,2013-08-21 07:26:00,
2013-08-21 01:27:00,70.2,37.5,29.89,WNW,293,8.5,10.5,30,0.00,,,0.00,WUHU216HW,2013-08-21 07:27:00,
2013-08-21 01:29:00,70.2,37.5,29.90,NW,315,11.2,11.4,30,0.00,,,0.00,WUHU216HW,2013-08-21 07:29:00,
2013-08-21 01:31:00,70.2,37.5,29.89,WNW,293,9.2,11.4,30,0.00,,,0.00,WUHU216HW,2013-08-21 07:31:00,
2013-08-21 01:32:00,70.0,37.3,29.89,WNW,293,7.2,11.4,30,0.00,,,0.00,WUHU216HW,2013-08-21 07:32:00,
2013-08-21 01:34:00,70.0,37.3,29.89,NW,315,7.8,11.4,30,0.00,,,0.00,WUHU216HW,2013-08-21 07:34:00,
2013-08-21 01:36:00,70.0,37.3,29.89,NW,315,7.6,11.4,30,0.00,,,0.00,WUHU216HW,2013-08-21 07:36:00,
2013-08-21 01:37:00,70.0,37.3,29.89,NW,315,7.6,11.4,30,0.00,,,0.00,WUHU216HW,2013-08-21 07:37:00,
2013-08-21 01:39:00,70.0,37.3,29.89,WNW,293,9.8,11.2,30,0.00,,,0.00,WUHU216HW,2013-08-21 07:39:00,
2013-08-21 01:42:00,70.0,37.3,29.89,West,270,8.7,11.4,30,0.00,,,0.00,WUHU216HW,2013-08-21 07:42:00,
2013-08-21 01:43:00,70.0,37.3,29.90,West,270,7.8,11.4,30,0.00,,,0.00,WUHU216HW,2013-08-21 07:43:00,
2013-08-21 01:44:00,70.2,37.5,29.90,West,270,9.8,11.4,30,0.00,,,0.00,WUHU216HW,2013-08-21 07:44:00,
2013-08-21 01:47:00,70.2,37.5,29.90,WNW,293,8.7,11.4,30,0.00,,,0.00,WUHU216HW,2013-08-21 07:47:00,
2013-08-21 01:48:00,70.2,37.5,29.90,West,270,6.3,11.4,30,0.00,,,0.00,WUHU216HW,2013-08-21 07:48:00,
2013-08-21 01:49:00,70.4,37.5,29.90,NW,315,9.8,11.4,30,0.00,,,0.00,WUHU216HW,2013-08-21 07:49:00,
2013-08-21 01:52:00,70.4,37.5,29.90,WNW,293,7.4,11.4,30,0.00,,,0.00,WUHU216HW,2013-08-21 07:52:00,
2013-08-21 01:53:00,70.4,37.5,29.90,WNW,293,7.4,11.4,30,0.00,,,0.00,WUHU216HW,2013-08-21 07:53:00,
2013-08-21 01:54:00,70.4,37.5,29.90,WNW,293,8.5,11.4,30,0.00,,,0.00,WUHU216HW,2013-08-21 07:54:00,
2013-08-21 01:57:00,70.6,36.7,29.90,West,270,13.4,13.4,29,0.00,,,0.00,WUHU216HW,2013-08-21 07:57:00,
2013-08-21 01:58:00,70.6,36.7,29.90,West,270,13.4,13.4,29,0.00,,,0.00,WUHU216HW,2013-08-21 07:58:00,
2013-08-21 02:00:00,70.7,36.9,29.90,West,270,8.5,13.4,29,0.00,,,0.00,WUHU216HW,2013-08-21 08:00:00,
2013-08-21 02:02:00,70.9,37.0,29.90,WNW,293,10.5,13.6,29,0.00,,,0.00,WUHU216HW,2013-08-21 08:02:00,
2013-08-21 02:03:00,70.9,37.0,29.90,NW,315,6.3,13.6,29,0.00,,,0.00,WUHU216HW,2013-08-21 08:03:00,
2013-08-21 02:05:00,70.9,38.1,29.90,NNE,23,2.7,13.6,30,0.00,,,0.00,WUHU216HW,2013-08-21 08:05:00,
2013-08-21 02:07:00,70.0,38.0,29.90,NNW,338,4.7,13.6,31,0.00,,,0.00,WUHU216HW,2013-08-21 08:07:00,
2013-08-21 02:08:00,69.8,37.8,29.90,NNW,338,5.6,13.6,31,0.00,,,0.00,WUHU216HW,2013-08-21 08:08:00,
2013-08-21 02:10:00,68.8,37.6,29.90,NW,315,5.1,13.6,32,0.00,,,0.00,WUHU216HW,2013-08-21 08:10:00,
2013-08-21 02:13:00,67.9,37.5,29.90,NW,315,4.0,8.5,33,0.00,,,0.00,WUHU216HW,2013-08-21 08:13:00,
2013-08-21 02:14:00,67.7,37.4,29.90,North,0,3.1,7.2,33,0.00,,,0.00,WUHU216HW,2013-08-21 08:14:00,
2013-08-21 02:15:00,67.1,37.6,29.90,NNW,338,3.8,6.9,34,0.00,,,0.00,WUHU216HW,2013-08-21 08:15:00,
2013-08-21 02:18:00,67.0,37.5,29.90,North,0,3.8,7.2,34,0.00,,,0.00,WUHU216HW,2013-08-21 08:18:00,
2013-08-21 02:19:00,67.0,37.5,29.90,NNW,338,2.5,7.2,34,0.00,,,0.00,WUHU216HW,2013-08-21 08:19:00,
2013-08-21 02:20:00,66.8,37.4,29.90,NNW,338,3.6,7.2,34,0.00,,,0.00,WUHU216HW,2013-08-21 08:20:00,
2013-08-21 02:23:00,67.0,37.5,29.90,North,0,2.5,7.2,34,0.00,,,0.00,WUHU216HW,2013-08-21 08:23:00,
2013-08-21 02:24:00,67.0,37.5,29.90,North,0,3.1,7.2,34,0.00,,,0.00,WUHU216HW,2013-08-21 08:24:00,
2013-08-21 02:25:00,67.0,37.5,29.90,WNW,293,2.2,7.2,34,0.00,,,0.00,WUHU216HW,2013-08-21 08:25:00,
2013-08-21 02:28:00,67.0,37.5,29.90,NW,315,4.9,6.9,34,0.00,,,0.00,WUHU216HW,2013-08-21 08:28:00,
2013-08-21 02:29:00,67.0,37.5,29.90,NNW,338,5.1,6.9,34,0.00,,,0.00,WUHU216HW,2013-08-21 08:29:00,
2013-08-21 02:31:00,67.0,37.5,29.90,NW,315,4.3,6.9,34,0.00,,,0.00,WUHU216HW,2013-08-21 08:31:00,
2013-08-21 02:33:00,67.1,36.9,29.90,West,270,4.0,6.9,33,0.00,,,0.00,WUHU216HW,2013-08-21 08:33:00,
2013-08-21 02:35:00,67.1,36.9,29.90,WNW,293,1.8,6.9,33,0.00,,,0.00,WUHU216HW,2013-08-21 08:35:00,
2013-08-21 02:36:00,67.1,36.9,29.90,NW,315,2.0,6.9,33,0.00,,,0.00,WUHU216HW,2013-08-21 08:36:00,
2013-08-21 02:38:00,67.1,37.6,29.90,North,0,3.1,6.9,34,0.00,,,0.00,WUHU216HW,2013-08-21 08:38:00,
2013-08-21 02:39:00,67.0,37.5,29.90,NE,45,3.6,6.9,34,0.00,,,0.00,WUHU216HW,2013-08-21 08:39:00,
2013-08-21 02:40:00,67.0,38.3,29.90,ENE,68,2.2,6.5,35,0.00,,,0.00,WUHU216HW,2013-08-21 08:40:00,
2013-08-21 02:41:00,67.0,37.5,29.90,NE,45,4.0,6.5,34,0.00,,,0.00,WUHU216HW,2013-08-21 08:41:00,
2013-08-21 02:43:00,66.6,37.2,29.90,NNE,23,1.8,6.5,34,0.00,,,0.00,WUHU216HW,2013-08-21 08:43:00,
2013-08-21 02:44:00,66.6,37.2,29.90,ENE,68,1.1,6.5,34,0.00,,,0.00,WUHU216HW,2013-08-21 08:44:00,
2013-08-21 02:46:00,66.1,38.9,29.90,ENE,68,4.7,6.5,37,0.00,,,0.00,WUHU216HW,2013-08-21 08:46:00,
2013-08-21 02:49:00,65.5,39.2,29.90,ENE,68,7.6,9.8,38,0.00,,,0.00,WUHU216HW,2013-08-21 08:49:00,
2013-08-21 02:51:00,65.5,39.9,29.90,NE,45,4.0,9.8,39,0.00,,,0.00,WUHU216HW,2013-08-21 08:51:00,
2013-08-21 02:54:00,65.2,39.5,29.90,North,0,5.4,9.8,39,0.00,,,0.00,WUHU216HW,2013-08-21 08:54:00,
2013-08-21 02:56:00,65.0,39.3,29.90,North,0,4.0,9.8,39,0.00,,,0.00,WUHU216HW,2013-08-21 08:56:00,
2013-08-21 02:57:00,65.0,39.3,29.90,North,0,6.7,9.8,39,0.00,,,0.00,WUHU216HW,2013-08-21 08:57:00,
2013-08-21 02:59:00,64.6,39.8,29.90,NNE,23,5.4,6.9,40,0.00,,,0.00,WUHU216HW,2013-08-21 08:59:00,
2013-08-21 03:00:00,64.6,39.8,29.90,NE,45,5.1,6.7,40,0.00,,,0.00,WUHU216HW,2013-08-21 09:00:00,
2013-08-21 03:02:00,64.4,39.6,29.90,NNE,23,5.6,6.7,40,0.00,,,0.00,WUHU216HW,2013-08-21 09:02:00,
2013-08-21 03:04:00,63.9,39.7,29.90,North,0,2.5,6.7,41,0.00,,,0.00,WUHU216HW,2013-08-21 09:04:00,
2013-08-21 03:05:00,63.9,39.7,29.90,North,0,4.0,6.7,41,0.00,,,0.00,WUHU216HW,2013-08-21 09:05:00,
2013-08-21 03:07:00,63.5,39.3,29.90,North,0,3.1,6.3,41,0.00,,,0.00,WUHU216HW,2013-08-21 09:07:00,
2013-08-21 03:08:00,63.4,39.3,29.90,North,0,2.5,6.0,41,0.00,,,0.00,WUHU216HW,2013-08-21 09:08:00,
2013-08-21 03:10:00,63.2,39.1,29.90,North,0,8.1,8.1,41,0.00,,,0.00,WUHU216HW,2013-08-21 09:10:00,
2013-08-21 03:12:00,62.8,39.3,29.90,NNE,23,5.8,8.1,42,0.00,,,0.00,WUHU216HW,2013-08-21 09:12:00,
2013-08-21 03:13:00,62.8,39.3,29.90,NNE,23,6.5,8.1,42,0.00,,,0.00,WUHU216HW,2013-08-21 09:13:00,
2013-08-21 03:15:00,62.6,39.7,29.90,North,0,6.7,8.1,43,0.00,,,0.00,WUHU216HW,2013-08-21 09:15:00,
2013-08-21 03:16:00,62.6,39.7,29.90,NNE,23,6.3,8.1,43,0.00,,,0.00,WUHU216HW,2013-08-21 09:16:00,
2013-08-21 03:18:00,62.6,39.7,29.90,North,0,2.2,8.1,43,0.00,,,0.00,WUHU216HW,2013-08-21 09:18:00,
2013-08-21 03:20:00,62.6,39.2,29.90,NNW,338,1.3,8.1,42,0.00,,,0.00,WUHU216HW,2013-08-21 09:20:00,
2013-08-21 03:21:00,62.6,39.2,29.90,NNW,338,1.6,7.2,42,0.00,,,0.00,WUHU216HW,2013-08-21 09:21:00,
2013-08-21 03:23:00,62.6,38.5,29.90,NNW,338,1.8,6.7,41,0.00,,,0.00,WUHU216HW,2013-08-21 09:23:00,
2013-08-21 03:25:00,62.5,39.5,29.90,NNW,338,1.3,6.7,43,0.00,,,0.00,WUHU216HW,2013-08-21 09:25:00,
2013-08-21 03:26:00,62.3,40.0,29.91,NNE,23,2.9,6.7,44,0.00,,,0.00,WUHU216HW,2013-08-21 09:26:00,
2013-08-21 03:28:00,62.3,40.0,29.91,North,0,1.1,2.9,44,0.00,,,0.00,WUHU216HW,2013-08-21 09:28:00,
2013-08-21 03:30:00,62.5,40.2,29.91,North,0,1.1,2.9,44,0.00,,,0.00,WUHU216HW,2013-08-21 09:30:00,
2013-08-21 03:32:00,62.5,40.2,29.91,North,0,1.6,2.9,44,0.00,,,0.00,WUHU216HW,2013-08-21 09:32:00,
2013-08-21 03:33:00,62.5,40.2,29.91,NE,45,3.1,3.1,44,0.00,,,0.00,WUHU216HW,2013-08-21 09:33:00,
2013-08-21 03:34:00,62.5,40.2,29.91,NE,45,3.4,3.4,44,0.00,,,0.00,WUHU216HW,2013-08-21 09:34:00,
2013-08-21 03:35:00,62.5,40.7,29.91,NE,45,2.9,3.4,45,0.00,,,0.00,WUHU216HW,2013-08-21 09:35:00,
2013-08-21 03:37:00,62.5,40.7,29.91,NE,45,2.9,3.4,45,0.00,,,0.00,WUHU216HW,2013-08-21 09:37:00,
2013-08-21 03:39:00,62.3,40.5,29.91,NNE,23,2.9,3.8,45,0.00,,,0.00,WUHU216HW,2013-08-21 09:39:00,
2013-08-21 03:40:00,62.3,40.5,29.91,NE,45,2.0,3.8,45,0.00,,,0.00,WUHU216HW,2013-08-21 09:40:00,
2013-08-21 03:42:00,62.3,41.1,29.91,NNE,23,3.6,3.8,46,0.00,,,0.00,WUHU216HW,2013-08-21 09:42:00,
2013-08-21 03:44:00,62.3,41.7,29.91,NNE,23,3.4,3.8,47,0.00,,,0.00,WUHU216HW,2013-08-21 09:44:00,
2013-08-21 03:45:00,62.3,41.7,29.91,NNW,338,2.5,3.8,47,0.00,,,0.00,WUHU216HW,2013-08-21 09:45:00,
2013-08-21 03:46:00,62.3,41.7,29.91,North,0,1.3,3.8,47,0.00,,,0.00,WUHU216HW,2013-08-21 09:46:00,
2013-08-21 03:47:00,62.3,40.5,29.91,North,0,4.5,4.5,45,0.00,,,0.00,WUHU216HW,2013-08-21 09:47:00,
2013-08-21 03:49:00,62.6,39.2,29.91,North,0,2.5,4.5,42,0.00,,,0.00,WUHU216HW,2013-08-21 09:49:00,
2013-08-21 03:51:00,62.6,38.5,29.91,NNW,338,1.8,4.5,41,0.00,,,0.00,WUHU216HW,2013-08-21 09:51:00,
2013-08-21 03:52:00,62.8,38.7,29.91,NNW,338,2.7,4.5,41,0.00,,,0.00,WUHU216HW,2013-08-21 09:52:00,
2013-08-21 03:54:00,62.8,38.7,29.91,WNW,293,3.4,4.5,41,0.00,,,0.00,WUHU216HW,2013-08-21 09:54:00,
2013-08-21 03:56:00,62.6,38.5,29.91,WNW,293,5.1,5.1,41,0.00,,,0.00,WUHU216HW,2013-08-21 09:56:00,
2013-08-21 03:57:00,62.5,38.4,29.91,NW,315,4.3,5.1,41,0.00,,,0.00,WUHU216HW,2013-08-21 09:57:00,
2013-08-21 03:59:00,62.3,38.3,29.91,NW,315,5.4,5.6,41,0.00,,,0.00,WUHU216HW,2013-08-21 09:59:00,
2013-08-21 04:01:00,62.1,37.5,29.91,NW,315,6.0,6.7,40,0.00,,,0.00,WUHU216HW,2013-08-21 10:01:00,
2013-08-21 04:02:00,61.9,37.4,29.91,NW,315,6.3,6.7,40,0.00,,,0.00,WUHU216HW,2013-08-21 10:02:00,
2013-08-21 04:04:00,61.7,37.2,29.91,NW,315,4.0,6.7,40,0.00,,,0.00,WUHU216HW,2013-08-21 10:04:00,
2013-08-21 04:05:00,61.7,37.2,29.91,NW,315,4.9,6.7,40,0.00,,,0.00,WUHU216HW,2013-08-21 10:05:00,
2013-08-21 04:06:00,61.7,37.2,29.91,NW,315,4.9,6.7,40,0.00,,,0.00,WUHU216HW,2013-08-21 10:06:00,
2013-08-21 04:07:00,61.7,37.2,29.92,NW,315,6.9,6.9,40,0.00,,,0.00,WUHU216HW,2013-08-21 10:07:00,
2013-08-21 04:09:00,61.7,37.2,29.91,NNW,338,5.6,8.7,40,0.00,,,0.00,WUHU216HW,2013-08-21 10:09:00,
2013-08-21 04:10:00,61.7,37.2,29.91,NNW,338,4.9,8.7,40,0.00,,,0.00,WUHU216HW,2013-08-21 10:10:00,
2013-08-21 04:11:00,61.7,37.2,29.92,NNW,338,5.6,8.7,40,0.00,,,0.00,WUHU216HW,2013-08-21 10:11:00,
2013-08-21 04:12:00,61.9,37.4,29.92,NW,315,5.1,8.7,40,0.00,,,0.00,WUHU216HW,2013-08-21 10:12:00,
2013-08-21 04:15:00,61.9,36.6,29.92,NW,315,4.0,8.7,39,0.00,,,0.00,WUHU216HW,2013-08-21 10:15:00,
2013-08-21 04:16:00,61.9,36.6,29.92,North,0,4.7,8.7,39,0.00,,,0.00,WUHU216HW,2013-08-21 10:16:00,
2013-08-21 04:17:00,61.9,36.6,29.92,NNW,338,4.7,8.7,39,0.00,,,0.00,WUHU216HW,2013-08-21 10:17:00,
2013-08-21 04:20:00,61.9,36.6,29.92,NW,315,4.0,7.4,39,0.00,,,0.00,WUHU216HW,2013-08-21 10:20:00,
2013-08-21 04:21:00,61.9,36.6,29.92,NNW,338,5.1,7.4,39,0.00,,,0.00,WUHU216HW,2013-08-21 10:21:00,
2013-08-21 04:22:00,61.9,36.6,29.92,NNW,338,6.0,7.4,39,0.00,,,0.00,WUHU216HW,2013-08-21 10:22:00,
2013-08-21 04:25:00,62.1,36.1,29.92,North,0,6.5,9.6,38,0.00,,,0.00,WUHU216HW,2013-08-21 10:25:00,
2013-08-21 04:26:00,62.3,36.2,29.92,NW,315,8.5,9.6,38,0.00,,,0.00,WUHU216HW,2013-08-21 10:26:00,
2013-08-21 04:27:00,62.3,36.2,29.92,NNW,338,6.9,9.8,38,0.00,,,0.00,WUHU216HW,2013-08-21 10:27:00,
2013-08-21 04:30:00,62.3,36.2,29.92,NNW,338,9.8,9.8,38,0.00,,,0.00,WUHU216HW,2013-08-21 10:30:00,
2013-08-21 04:31:00,62.3,36.2,29.92,NNW,338,7.2,9.8,38,0.00,,,0.00,WUHU216HW,2013-08-21 10:31:00,
2013-08-21 04:32:00,62.1,36.1,29.92,North,0,8.3,9.8,38,0.00,,,0.00,WUHU216HW,2013-08-21 10:32:00,
2013-08-21 04:35:00,62.3,36.2,29.92,NW,315,7.8,10.3,38,0.00,,,0.00,WUHU216HW,2013-08-21 10:35:00,
2013-08-21 04:36:00,62.3,36.2,29.92,NNW,338,9.2,10.3,38,0.00,,,0.00,WUHU216HW,2013-08-21 10:36:00,
2013-08-21 04:37:00,62.3,36.2,29.92,NNW,338,7.2,10.3,38,0.00,,,0.00,WUHU216HW,2013-08-21 10:37:00,
2013-08-21 04:40:00,62.1,36.1,29.91,North,0,5.6,10.3,38,0.00,,,0.00,WUHU216HW,2013-08-21 10:40:00,
2013-08-21 04:41:00,61.9,35.9,29.91,NNW,338,6.0,10.3,38,0.00,,,0.00,WUHU216HW,2013-08-21 10:41:00,
2013-08-21 04:42:00,61.9,35.9,29.92,NNW,338,7.6,10.3,38,0.00,,,0.00,WUHU216HW,2013-08-21 10:42:00,
2013-08-21 04:45:00,61.9,35.9,29.92,North,0,5.6,9.8,38,0.00,,,0.00,WUHU216HW,2013-08-21 10:45:00,
2013-08-21 04:46:00,61.9,36.6,29.92,North,0,4.7,9.8,39,0.00,,,0.00,WUHU216HW,2013-08-21 10:46:00,
2013-08-21 04:47:00,61.7,36.5,29.92,North,0,6.0,9.8,39,0.00,,,0.00,WUHU216HW,2013-08-21 10:47:00,
2013-08-21 04:48:00,61.4,36.1,29.92,North,0,5.1,9.8,39,0.00,,,0.00,WUHU216HW,2013-08-21 10:48:00,
2013-08-21 04:50:00,61.2,36.0,29.92,North,0,4.5,9.8,39,0.00,,,0.00,WUHU216HW,2013-08-21 10:50:00,
2013-08-21 04:51:00,61.0,35.8,29.92,North,0,5.1,9.8,39,0.00,,,0.00,WUHU216HW,2013-08-21 10:51:00,
2013-08-21 04:52:00,60.8,36.4,29.92,North,0,5.4,9.8,40,0.00,,,0.00,WUHU216HW,2013-08-21 10:52:00,
2013-08-21 04:54:00,60.5,36.0,29.92,North,0,4.7,9.8,40,0.00,,,0.00,WUHU216HW,2013-08-21 10:54:00,
2013-08-21 04:56:00,60.1,36.3,29.92,North,0,6.0,6.9,41,0.00,,,0.00,WUHU216HW,2013-08-21 10:56:00,
2013-08-21 04:57:00,59.9,36.1,29.92,North,0,6.5,7.4,41,0.00,,,0.00,WUHU216HW,2013-08-21 10:57:00,
2013-08-21 04:59:00,59.8,36.0,29.92,North,0,4.0,7.4,41,0.00,,,0.00,WUHU216HW,2013-08-21 10:59:00,
2013-08-21 05:01:00,59.6,35.8,29.92,North,0,4.0,7.4,41,0.00,,,0.00,WUHU216HW,2013-08-21 11:01:00,
2013-08-21 05:02:00,59.4,36.2,29.92,North,0,4.7,7.4,42,0.00,,,0.00,WUHU216HW,2013-08-21 11:02:00,
2013-08-21 05:03:00,59.4,36.2,29.92,North,0,5.4,7.4,42,0.00,,,0.00,WUHU216HW,2013-08-21 11:03:00,
2013-08-21 05:04:00,59.2,36.1,29.92,North,0,5.4,7.4,42,0.00,,,0.00,WUHU216HW,2013-08-21 11:04:00,
2013-08-21 05:06:00,59.2,36.1,29.92,North,0,6.0,7.4,42,0.00,,,0.00,WUHU216HW,2013-08-21 11:06:00,
2013-08-21 05:07:00,59.2,36.1,29.92,North,0,6.5,6.7,42,0.00,,,0.00,WUHU216HW,2013-08-21 11:07:00,
2013-08-21 05:08:00,59.4,35.6,29.92,North,0,6.9,7.6,41,0.00,,,0.00,WUHU216HW,2013-08-21 11:08:00,
2013-08-21 05:09:00,59.4,35.6,29.92,North,0,6.5,7.6,41,0.00,,,0.00,WUHU216HW,2013-08-21 11:09:00,
2013-08-21 05:11:00,59.4,35.6,29.92,NNW,338,6.5,7.6,41,0.00,,,0.00,WUHU216HW,2013-08-21 11:11:00,
2013-08-21 05:12:00,59.6,35.8,29.92,North,0,7.2,7.6,41,0.00,,,0.00,WUHU216HW,2013-08-21 11:12:00,
2013-08-21 05:13:00,59.4,35.6,29.92,NNW,338,7.2,7.6,41,0.00,,,0.00,WUHU216HW,2013-08-21 11:13:00,
2013-08-21 05:14:00,59.4,35.6,29.92,NNW,338,6.9,7.6,41,0.00,,,0.00,WUHU216HW,2013-08-21 11:14:00,
2013-08-21 05:16:00,59.4,35.6,29.92,NNW,338,7.4,7.6,41,0.00,,,0.00,WUHU216HW,2013-08-21 11:16:00,
2013-08-21 05:17:00,59.4,35.6,29.92,North,0,6.9,7.6,41,0.00,,,0.00,WUHU216HW,2013-08-21 11:17:00,
2013-08-21 05:18:00,59.2,35.5,29.92,North,0,6.3,7.8,41,0.00,,,0.00,WUHU216HW,2013-08-21 11:18:00,
2013-08-21 05:19:00,59.2,35.5,29.92,NNW,338,7.8,7.8,41,0.00,,,0.00,WUHU216HW,2013-08-21 11:19:00,
2013-08-21 05:21:00,59.4,35.6,29.92,NNW,338,7.6,9.2,41,0.00,,,0.00,WUHU216HW,2013-08-21 11:21:00,
2013-08-21 05:22:00,59.4,35.6,29.92,NNW,338,7.6,9.6,41,0.00,,,0.00,WUHU216HW,2013-08-21 11:22:00,
2013-08-21 05:23:00,59.4,35.6,29.92,NNW,338,7.4,9.6,41,0.00,,,0.00,WUHU216HW,2013-08-21 11:23:00,
2013-08-21 05:24:00,59.4,35.6,29.92,NNW,338,7.8,9.6,41,0.00,,,0.00,WUHU216HW,2013-08-21 11:24:00,
2013-08-21 05:26:00,59.4,35.6,29.92,NNW,338,8.3,9.6,41,0.00,,,0.00,WUHU216HW,2013-08-21 11:26:00,
2013-08-21 05:27:00,59.4,35.1,29.92,NW,315,8.5,9.6,40,0.00,,,0.00,WUHU216HW,2013-08-21 11:27:00,
2013-08-21 05:28:00,59.4,35.1,29.92,NW,315,7.2,9.6,40,0.00,,,0.00,WUHU216HW,2013-08-21 11:28:00,
2013-08-21 05:29:00,59.4,35.6,29.92,NW,315,7.4,9.6,41,0.00,,,0.00,WUHU216HW,2013-08-21 11:29:00,
2013-08-21 05:30:00,59.4,35.6,29.92,NW,315,7.2,9.6,41,0.00,,,0.00,WUHU216HW,2013-08-21 11:30:00,
2013-08-21 05:31:00,59.4,35.6,29.92,NW,315,8.1,9.6,41,0.00,,,0.00,WUHU216HW,2013-08-21 11:31:00,
2013-08-21 05:32:00,59.2,35.5,29.92,NW,315,7.6,9.2,41,0.00,,,0.00,WUHU216HW,2013-08-21 11:32:00,
2013-08-21 05:33:00,59.2,35.5,29.92,NW,315,8.7,9.2,41,0.00,,,0.00,WUHU216HW,2013-08-21 11:33:00,
2013-08-21 05:34:00,59.2,35.5,29.92,NW,315,7.8,9.2,41,0.00,,,0.00,WUHU216HW,2013-08-21 11:34:00,
2013-08-21 05:35:00,59.2,35.5,29.92,NW,315,8.5,8.7,41,0.00,,,0.00,WUHU216HW,2013-08-21 11:35:00,
2013-08-21 05:37:00,59.0,35.3,29.92,NW,315,8.5,9.2,41,0.00,,,0.00,WUHU216HW,2013-08-21 11:37:00,
2013-08-21 05:38:00,59.0,35.3,29.92,WNW,293,7.6,9.2,41,0.00,,,0.00,WUHU216HW,2013-08-21 11:38:00,
2013-08-21 05:39:00,59.0,35.3,29.92,WNW,293,7.4,9.2,41,0.00,,,0.00,WUHU216HW,2013-08-21 11:39:00,
2013-08-21 05:40:00,59.0,35.3,29.92,WNW,293,7.6,9.2,41,0.00,,,0.00,WUHU216HW,2013-08-21 11:40:00,
2013-08-21 05:42:00,59.0,35.3,29.92,NW,315,7.6,9.2,41,0.00,,,0.00,WUHU216HW,2013-08-21 11:42:00,
2013-08-21 05:43:00,58.9,35.2,29.92,NW,315,7.6,9.2,41,0.00,,,0.00,WUHU216HW,2013-08-21 11:43:00,
2013-08-21 05:44:00,58.9,35.2,29.92,NW,315,7.6,9.2,41,0.00,,,0.00,WUHU216HW,2013-08-21 11:44:00,
2013-08-21 05:46:00,59.0,35.3,29.92,NW,315,8.7,9.4,41,0.00,,,0.00,WUHU216HW,2013-08-21 11:46:00,
2013-08-21 05:47:00,59.0,35.3,29.92,NW,315,9.2,9.4,41,0.00,,,0.00,WUHU216HW,2013-08-21 11:47:00,
2013-08-21 05:48:00,59.2,34.9,29.92,NW,315,9.2,10.1,40,0.00,,,0.00,WUHU216HW,2013-08-21 11:48:00,
2013-08-21 05:49:00,59.2,34.9,29.92,NW,315,9.2,10.1,40,0.00,,,0.00,WUHU216HW,2013-08-21 11:49:00,
2013-08-21 05:51:00,59.4,35.1,29.92,NW,315,9.2,10.1,40,0.00,,,0.00,WUHU216HW,2013-08-21 11:51:00,
2013-08-21 05:52:00,59.4,35.1,29.92,NW,315,10.5,10.5,40,0.00,,,0.00,WUHU216HW,2013-08-21 11:52:00,
2013-08-21 05:53:00,59.4,35.1,29.92,NW,315,8.9,10.5,40,0.00,,,0.00,WUHU216HW,2013-08-21 11:53:00,
2013-08-21 05:54:00,59.4,35.1,29.92,NW,315,8.7,10.5,40,0.00,,,0.00,WUHU216HW,2013-08-21 11:54:00,
2013-08-21 05:56:00,59.4,35.1,29.92,NNW,338,9.2,10.5,40,0.00,,,0.00,WUHU216HW,2013-08-21 11:56:00,
2013-08-21 05:57:00,59.4,35.1,29.92,NW,315,10.5,10.5,40,0.00,,,0.00,WUHU216HW,2013-08-21 11:57:00,
2013-08-21 05:59:00,59.4,35.1,29.92,NW,315,10.3,10.5,40,0.00,,,0.00,WUHU216HW,2013-08-21 11:59:00,
2013-08-21 06:01:00,59.4,35.1,29.92,NNW,338,11.2,11.2,40,0.00,,,0.00,WUHU216HW,2013-08-21 12:01:00,
2013-08-21 06:02:00,59.4,35.1,29.92,NW,315,11.0,11.6,40,0.00,,,0.00,WUHU216HW,2013-08-21 12:02:00,
2013-08-21 06:03:00,59.4,35.1,29.92,NW,315,9.2,11.6,40,0.00,,,0.00,WUHU216HW,2013-08-21 12:03:00,
2013-08-21 06:04:00,59.4,35.1,29.92,NW,315,8.5,11.6,40,0.00,,,0.00,WUHU216HW,2013-08-21 12:04:00,
2013-08-21 06:05:00,59.4,35.1,29.92,NW,315,9.8,11.6,40,0.00,,,0.00,WUHU216HW,2013-08-21 12:05:00,
2013-08-21 06:06:00,59.2,34.9,29.92,NW,315,7.8,11.9,40,0.00,,,0.00,WUHU216HW,2013-08-21 12:06:00,
2013-08-21 06:07:00,59.2,34.9,29.92,NNW,338,9.6,11.9,40,0.00,,,0.00,WUHU216HW,2013-08-21 12:07:00,
2013-08-21 06:08:00,59.0,34.7,29.92,NW,315,8.1,11.9,40,0.00,,,0.00,WUHU216HW,2013-08-21 12:08:00,
2013-08-21 06:09:00,59.0,34.7,29.92,WNW,293,9.2,11.9,40,0.00,,,0.00,WUHU216HW,2013-08-21 12:09:00,
2013-08-21 06:10:00,59.0,34.7,29.92,NW,315,9.2,11.9,40,0.00,,,0.00,WUHU216HW,2013-08-21 12:10:00,
2013-08-21 06:11:00,59.0,34.7,29.92,NW,315,8.9,11.9,40,0.00,,,0.00,WUHU216HW,2013-08-21 12:11:00,
2013-08-21 06:12:00,59.0,34.7,29.92,NW,315,7.8,11.9,40,0.00,,,0.00,WUHU216HW,2013-08-21 12:12:00,
2013-08-21 06:13:00,59.0,34.7,29.92,NW,315,8.5,11.9,40,0.00,,,0.00,WUHU216HW,2013-08-21 12:13:00,
2013-08-21 06:14:00,59.0,34.7,29.92,NW,315,8.7,11.9,40,0.00,,,0.00,WUHU216HW,2013-08-21 12:14:00,
2013-08-21 06:15:00,59.0,34.7,29.92,NNW,338,8.5,11.9,40,0.00,,,0.00,WUHU216HW,2013-08-21 12:15:00,
2013-08-21 06:16:00,59.0,34.7,29.92,NNW,338,9.2,10.3,40,0.00,,,0.00,WUHU216HW,2013-08-21 12:16:00,
2013-08-21 06:17:00,59.0,34.7,29.92,NNW,338,8.7,10.3,40,0.00,,,0.00,WUHU216HW,2013-08-21 12:17:00,
2013-08-21 06:18:00,59.0,34.7,29.92,NNW,338,7.8,9.8,40,0.00,,,0.00,WUHU216HW,2013-08-21 12:18:00,
2013-08-21 06:19:00,58.9,34.6,29.92,North,0,8.5,9.8,40,0.00,,,0.00,WUHU216HW,2013-08-21 12:19:00,
2013-08-21 06:20:00,58.9,34.6,29.92,NNW,338,9.2,9.8,40,0.00,,,0.00,WUHU216HW,2013-08-21 12:20:00,
2013-08-21 06:21:00,58.9,34.6,29.93,NNW,338,7.2,9.8,40,0.00,,,0.00,WUHU216HW,2013-08-21 12:21:00,
2013-08-21 06:22:00,58.9,34.6,29.93,North,0,5.4,9.8,40,0.00,,,0.00,WUHU216HW,2013-08-21 12:22:00,
2013-08-21 06:23:00,58.7,35.0,29.93,NNW,338,3.4,9.8,41,0.00,,,0.00,WUHU216HW,2013-08-21 12:23:00,
2013-08-21 06:24:00,58.7,35.0,29.93,North,0,4.3,9.8,41,0.00,,,0.00,WUHU216HW,2013-08-21 12:24:00,
2013-08-21 06:25:00,58.5,34.8,29.93,NNE,23,4.0,9.8,41,0.00,,,0.00,WUHU216HW,2013-08-21 12:25:00,
2013-08-21 06:27:00,58.3,34.7,29.93,East,90,1.8,9.2,41,0.00,,,0.00,WUHU216HW,2013-08-21 12:27:00,
2013-08-21 06:29:00,58.1,34.5,29.93,SE,135,3.4,9.2,41,0.00,,,0.00,WUHU216HW,2013-08-21 12:29:00,
2013-08-21 06:31:00,58.0,34.4,29.93,East,90,6.9,7.2,41,0.00,,,0.00,WUHU216HW,2013-08-21 12:31:00,
2013-08-21 06:32:00,57.8,34.2,29.94,ESE,113,3.6,6.9,41,0.00,,,0.00,WUHU216HW,2013-08-21 12:32:00,
2013-08-21 06:33:00,57.8,34.2,29.93,SE,135,3.4,6.9,41,0.00,,,0.00,WUHU216HW,2013-08-21 12:33:00,
2013-08-21 06:34:00,57.8,34.2,29.94,SE,135,1.8,6.9,41,0.00,,,0.00,WUHU216HW,2013-08-21 12:34:00,
2013-08-21 06:35:00,57.6,34.0,29.94,SE,135,1.1,6.9,41,0.00,,,0.00,WUHU216HW,2013-08-21 12:35:00,
2013-08-21 06:36:00,57.6,34.0,29.94,SSW,203,0.7,6.9,41,0.00,,,0.00,WUHU216HW,2013-08-21 12:36:00,
2013-08-21 06:37:00,57.6,34.0,29.94,SSW,203,0.2,6.9,41,0.00,,,0.00,WUHU216HW,2013-08-21 12:37:00,
2013-08-21 06:38:00,57.4,34.5,29.94,SSW,203,0.0,6.9,42,0.00,,,0.00,WUHU216HW,2013-08-21 12:38:00,
2013-08-21 06:39:00,57.4,33.8,29.94,SSW,203,0.0,6.9,41,0.00,,,0.00,WUHU216HW,2013-08-21 12:39:00,
2013-08-21 06:40:00,57.4,33.8,29.94,ESE,113,1.1,6.9,41,0.00,,,0.00,WUHU216HW,2013-08-21 12:40:00,
2013-08-21 06:41:00,57.2,33.7,29.94,ESE,113,1.8,6.9,41,0.00,,,0.00,WUHU216HW,2013-08-21 12:41:00,
2013-08-21 06:42:00,57.2,33.7,29.94,ENE,68,1.1,4.0,41,0.00,,,0.00,WUHU216HW,2013-08-21 12:42:00,
2013-08-21 06:44:00,57.2,34.3,29.94,NW,315,2.9,3.4,42,0.00,,,0.00,WUHU216HW,2013-08-21 12:44:00,
2013-08-21 06:45:00,57.2,34.3,29.94,North,0,1.6,3.4,42,0.00,,,0.00,WUHU216HW,2013-08-21 12:45:00,
2013-08-21 06:46:00,57.4,35.0,29.94,North,0,1.3,3.4,43,0.00,,,0.00,WUHU216HW,2013-08-21 12:46:00,
2013-08-21 06:47:00,57.6,34.6,29.94,North,0,1.8,3.4,42,0.00,,,0.00,WUHU216HW,2013-08-21 12:47:00,
2013-08-21 06:49:00,57.6,34.6,29.94,North,0,1.8,3.4,42,0.00,,,0.00,WUHU216HW,2013-08-21 12:49:00,
2013-08-21 06:50:00,57.6,34.6,29.94,North,0,0.4,3.4,42,0.00,,,0.00,WUHU216HW,2013-08-21 12:50:00,
2013-08-21 06:51:00,57.6,34.6,29.94,North,0,0.4,3.4,42,0.00,,,0.00,WUHU216HW,2013-08-21 12:51:00,
2013-08-21 06:52:00,57.8,34.7,29.94,NW,315,1.8,3.4,42,0.00,,,0.00,WUHU216HW,2013-08-21 12:52:00,
2013-08-21 06:54:00,57.8,34.2,29.94,NW,315,0.7,2.9,41,0.00,,,0.00,WUHU216HW,2013-08-21 12:54:00,
2013-08-21 06:55:00,57.6,34.6,29.95,NNW,338,0.4,2.7,42,0.00,,,0.00,WUHU216HW,2013-08-21 12:55:00,
2013-08-21 06:56:00,57.8,34.7,29.94,NNW,338,0.4,2.7,42,0.00,,,0.00,WUHU216HW,2013-08-21 12:56:00,
2013-08-21 06:57:00,57.8,34.2,29.94,NNW,338,0.4,2.7,41,0.00,,,0.00,WUHU216HW,2013-08-21 12:57:00,
2013-08-21 06:59:00,57.8,34.7,29.94,NNW,338,1.1,1.8,42,0.00,,,0.00,WUHU216HW,2013-08-21 12:59:00,
2013-08-21 07:00:00,58.0,34.4,29.94,NW,315,3.1,3.1,41,0.00,,,0.00,WUHU216HW,2013-08-21 13:00:00,
2013-08-21 07:01:00,58.0,34.4,29.94,NNW,338,2.5,3.4,41,0.00,,,0.00,WUHU216HW,2013-08-21 13:01:00,
2013-08-21 07:03:00,58.3,34.7,29.94,NNE,23,2.7,3.4,41,0.00,,,0.00,WUHU216HW,2013-08-21 13:03:00,
2013-08-21 07:04:00,58.5,34.8,29.94,North,0,4.7,4.7,41,0.00,,,0.00,WUHU216HW,2013-08-21 13:04:00,
2013-08-21 07:05:00,58.7,35.0,29.94,North,0,4.0,4.7,41,0.00,,,0.00,WUHU216HW,2013-08-21 13:05:00,
2013-08-21 07:06:00,58.5,34.8,29.95,North,0,1.8,4.7,41,0.00,,,0.00,WUHU216HW,2013-08-21 13:06:00,
2013-08-21 07:08:00,58.5,34.8,29.95,North,0,1.8,4.7,41,0.00,,,0.00,WUHU216HW,2013-08-21 13:08:00,
2013-08-21 07:10:00,58.5,34.8,29.94,NW,315,3.8,4.7,41,0.00,,,0.00,WUHU216HW,2013-08-21 13:10:00,
2013-08-21 07:12:00,58.5,34.3,29.94,NW,315,4.9,5.4,40,0.00,,,0.00,WUHU216HW,2013-08-21 13:12:00,
2013-08-21 07:13:00,58.7,35.0,29.94,NNW,338,4.7,5.4,41,0.00,,,0.00,WUHU216HW,2013-08-21 13:13:00,
2013-08-21 07:15:00,58.7,35.0,29.94,NNW,338,4.9,6.3,41,0.00,,,0.00,WUHU216HW,2013-08-21 13:15:00,
2013-08-21 07:16:00,58.9,35.2,29.94,NNW,338,5.4,6.3,41,0.00,,,0.00,WUHU216HW,2013-08-21 13:16:00,
2013-08-21 07:17:00,59.0,34.7,29.95,NNW,338,4.7,6.3,40,0.00,,,0.00,WUHU216HW,2013-08-21 13:17:00,
2013-08-21 07:18:00,59.2,34.9,29.95,North,0,3.8,6.3,40,0.00,,,0.00,WUHU216HW,2013-08-21 13:18:00,
2013-08-21 07:20:00,59.4,35.1,29.94,NNW,338,2.7,6.3,40,0.00,,,0.00,WUHU216HW,2013-08-21 13:20:00,
2013-08-21 07:21:00,59.6,35.2,29.95,NNW,338,2.5,6.3,40,0.00,,,0.00,WUHU216HW,2013-08-21 13:21:00,
2013-08-21 07:22:00,59.8,35.4,29.95,North,0,1.1,6.3,40,0.00,,,0.00,WUHU216HW,2013-08-21 13:22:00,
2013-08-21 07:23:00,59.8,35.4,29.95,North,0,1.8,6.3,40,0.00,,,0.00,WUHU216HW,2013-08-21 13:23:00,
2013-08-21 07:25:00,59.9,35.6,29.95,NNW,338,1.8,5.4,40,0.00,,,0.00,WUHU216HW,2013-08-21 13:25:00,
2013-08-21 07:26:00,59.9,35.6,29.95,North,0,3.4,5.4,40,0.00,,,0.00,WUHU216HW,2013-08-21 13:26:00,
2013-08-21 07:27:00,60.1,35.0,29.95,NNW,338,4.9,4.9,39,0.00,,,0.00,WUHU216HW,2013-08-21 13:27:00,
2013-08-21 07:28:00,60.1,35.0,29.95,NNW,338,2.9,4.9,39,0.00,,,0.00,WUHU216HW,2013-08-21 13:28:00,
2013-08-21 07:30:00,60.1,35.0,29.95,NNW,338,2.5,4.9,39,0.00,,,0.00,WUHU216HW,2013-08-21 13:30:00,
2013-08-21 07:31:00,60.1,35.7,29.95,North,0,4.0,4.9,40,0.00,,,0.00,WUHU216HW,2013-08-21 13:31:00,
2013-08-21 07:32:00,60.1,35.7,29.95,North,0,4.3,4.9,40,0.00,,,0.00,WUHU216HW,2013-08-21 13:32:00,
2013-08-21 07:34:00,60.1,35.0,29.95,North,0,4.5,5.4,39,0.00,,,0.00,WUHU216HW,2013-08-21 13:34:00,
2013-08-21 07:35:00,60.1,35.0,29.95,North,0,4.0,6.0,39,0.00,,,0.00,WUHU216HW,2013-08-21 13:35:00,
2013-08-21 07:36:00,60.1,35.0,29.95,North,0,5.1,6.0,39,0.00,,,0.00,WUHU216HW,2013-08-21 13:36:00,
2013-08-21 07:37:00,60.3,35.2,29.95,North,0,5.6,6.0,39,0.00,,,0.00,WUHU216HW,2013-08-21 13:37:00,
2013-08-21 07:39:00,60.3,35.2,29.95,NNW,338,6.3,6.3,39,0.00,,,0.00,WUHU216HW,2013-08-21 13:39:00,
2013-08-21 07:41:00,60.5,35.3,29.95,NNW,338,7.8,7.8,39,0.00,,,0.00,WUHU216HW,2013-08-21 13:41:00,
2013-08-21 07:43:00,60.7,35.5,29.95,NNW,338,8.5,8.5,39,0.00,,,0.00,WUHU216HW,2013-08-21 13:43:00,
2013-08-21 07:44:00,60.8,35.6,29.95,North,0,8.1,8.5,39,0.00,,,0.00,WUHU216HW,2013-08-21 13:44:00,
2013-08-21 07:46:00,60.8,35.6,29.95,NNW,338,6.9,10.3,39,0.00,,,0.00,WUHU216HW,2013-08-21 13:46:00,
2013-08-21 07:47:00,60.8,35.6,29.95,North,0,5.8,10.3,39,0.00,,,0.00,WUHU216HW,2013-08-21 13:47:00,
2013-08-21 07:48:00,60.8,35.6,29.95,NNW,338,11.2,11.2,39,0.00,,,0.00,WUHU216HW,2013-08-21 13:48:00,
2013-08-21 07:49:00,60.8,35.6,29.95,NNW,338,6.3,11.2,39,0.00,,,0.00,WUHU216HW,2013-08-21 13:49:00,
2013-08-21 07:51:00,60.8,36.4,29.94,North,0,5.4,11.2,40,0.00,,,0.00,WUHU216HW,2013-08-21 13:51:00,
2013-08-21 07:52:00,60.8,36.4,29.95,NW,315,7.2,11.2,40,0.00,,,0.00,WUHU216HW,2013-08-21 13:52:00,
2013-08-21 07:53:00,60.7,36.2,29.95,NNW,338,6.9,11.2,40,0.00,,,0.00,WUHU216HW,2013-08-21 13:53:00,
2013-08-21 07:54:00,60.7,36.2,29.95,NNW,338,6.9,11.2,40,0.00,,,0.00,WUHU216HW,2013-08-21 13:54:00,
2013-08-21 07:56:00,60.8,36.4,29.94,NNW,338,6.3,11.2,40,0.00,,,0.00,WUHU216HW,2013-08-21 13:56:00,
2013-08-21 07:57:00,60.8,36.4,29.94,North,0,4.7,11.2,40,0.00,,,0.00,WUHU216HW,2013-08-21 13:57:00,
2013-08-21 07:59:00,60.8,36.4,29.94,NW,315,6.3,8.7,40,0.00,,,0.00,WUHU216HW,2013-08-21 13:59:00,
2013-08-21 08:01:00,60.8,36.9,29.94,NNW,338,4.5,7.6,41,0.00,,,0.00,WUHU216HW,2013-08-21 14:01:00,
2013-08-21 08:02:00,60.8,36.9,29.94,NNW,338,4.5,7.6,41,0.00,,,0.00,WUHU216HW,2013-08-21 14:02:00,
2013-08-21 08:04:00,60.8,36.4,29.94,North,0,7.8,7.8,40,0.00,,,0.00,WUHU216HW,2013-08-21 14:04:00,
2013-08-21 08:07:00,61.0,36.6,29.94,NNW,338,8.5,8.5,40,0.00,,,0.00,WUHU216HW,2013-08-21 14:07:00,
2013-08-21 08:09:00,61.2,36.7,29.94,NW,315,8.9,8.9,40,0.00,,,0.00,WUHU216HW,2013-08-21 14:09:00,
2013-08-21 08:12:00,61.4,36.1,29.94,NNW,338,5.4,10.5,39,0.00,,,0.00,WUHU216HW,2013-08-21 14:12:00,
2013-08-21 08:13:00,61.4,36.1,29.94,NNW,338,6.9,10.5,39,0.00,,,0.00,WUHU216HW,2013-08-21 14:13:00,
2013-08-21 08:14:00,61.6,36.3,29.94,NNW,338,12.5,12.5,39,0.00,,,0.00,WUHU216HW,2013-08-21 14:14:00,
2013-08-21 08:15:00,61.6,36.3,29.94,NNW,338,12.1,12.5,39,0.00,,,0.00,WUHU216HW,2013-08-21 14:15:00,
2013-08-21 08:17:00,61.6,36.3,29.94,NNW,338,7.6,12.5,39,0.00,,,0.00,WUHU216HW,2013-08-21 14:17:00,
2013-08-21 08:18:00,61.6,36.3,29.94,NW,315,9.2,12.5,39,0.00,,,0.00,WUHU216HW,2013-08-21 14:18:00,
2013-08-21 08:19:00,61.7,36.5,29.94,NW,315,8.9,12.5,39,0.00,,,0.00,WUHU216HW,2013-08-21 14:19:00,
2013-08-21 08:20:00,61.7,36.5,29.94,NW,315,7.6,12.5,39,0.00,,,0.00,WUHU216HW,2013-08-21 14:20:00,
2013-08-21 08:22:00,61.9,35.9,29.94,NW,315,9.2,12.5,38,0.00,,,0.00,WUHU216HW,2013-08-21 14:22:00,
2013-08-21 08:23:00,62.1,36.8,29.94,NNW,338,9.4,12.5,39,0.00,,,0.00,WUHU216HW,2013-08-21 14:23:00,
2013-08-21 08:24:00,62.3,36.9,29.94,NNW,338,6.9,12.5,39,0.00,,,0.00,WUHU216HW,2013-08-21 14:24:00,
2013-08-21 08:25:00,62.5,36.4,29.94,NNW,338,8.7,9.8,38,0.00,,,0.00,WUHU216HW,2013-08-21 14:25:00,
2013-08-21 08:27:00,62.8,36.0,29.94,NNW,338,9.2,10.3,37,0.00,,,0.00,WUHU216HW,2013-08-21 14:27:00,
2013-08-21 08:28:00,63.0,36.2,29.94,NW,315,9.6,10.3,37,0.00,,,0.00,WUHU216HW,2013-08-21 14:28:00,
2013-08-21 08:30:00,63.0,36.2,29.94,NNW,338,9.8,11.6,37,0.00,,,0.00,WUHU216HW,2013-08-21 14:30:00,
2013-08-21 08:32:00,63.2,36.3,29.94,NNW,338,8.1,11.6,37,0.00,,,0.00,WUHU216HW,2013-08-21 14:32:00,
2013-08-21 08:33:00,63.2,36.3,29.94,NNW,338,11.2,11.6,37,0.00,,,0.00,WUHU216HW,2013-08-21 14:33:00,
2013-08-21 08:35:00,63.0,36.9,29.94,NNW,338,8.5,11.6,38,0.00,,,0.00,WUHU216HW,2013-08-21 14:35:00,
2013-08-21 08:37:00,63.0,36.2,29.94,NNW,338,10.1,11.6,37,0.00,,,0.00,WUHU216HW,2013-08-21 14:37:00,
2013-08-21 08:38:00,63.2,37.0,29.94,North,0,9.8,11.6,38,0.00,,,0.00,WUHU216HW,2013-08-21 14:38:00,
2013-08-21 08:40:00,63.2,37.0,29.94,NNW,338,8.1,11.4,38,0.00,,,0.00,WUHU216HW,2013-08-21 14:40:00,
2013-08-21 08:42:00,63.4,36.5,29.94,NNW,338,9.6,12.8,37,0.00,,,0.00,WUHU216HW,2013-08-21 14:42:00,
2013-08-21 08:43:00,63.4,36.5,29.94,NW,315,10.7,12.8,37,0.00,,,0.00,WUHU216HW,2013-08-21 14:43:00,
2013-08-21 08:44:00,63.4,36.5,29.94,NW,315,10.7,12.8,37,0.00,,,0.00,WUHU216HW,2013-08-21 14:44:00,
2013-08-21 08:45:00,63.4,36.5,29.94,NNW,338,8.3,12.8,37,0.00,,,0.00,WUHU216HW,2013-08-21 14:45:00,
2013-08-21 08:47:00,63.7,36.8,29.94,NNW,338,9.4,12.8,37,0.00,,,0.00,WUHU216HW,2013-08-21 14:47:00,
2013-08-21 08:49:00,63.7,36.8,29.95,NNW,338,6.3,12.8,37,0.00,,,0.00,WUHU216HW,2013-08-21 14:49:00,
2013-08-21 08:50:00,63.7,36.8,29.95,NNW,338,11.4,12.8,37,0.00,,,0.00,WUHU216HW,2013-08-21 14:50:00,
2013-08-21 08:53:00,64.1,36.4,29.95,NW,315,10.5,12.8,36,0.00,,,0.00,WUHU216HW,2013-08-21 14:53:00,
2013-08-21 08:54:00,64.1,36.4,29.95,NNW,338,11.0,11.9,36,0.00,,,0.00,WUHU216HW,2013-08-21 14:54:00,
2013-08-21 08:55:00,64.3,36.5,29.95,NNW,338,11.4,11.9,36,0.00,,,0.00,WUHU216HW,2013-08-21 14:55:00,
2013-08-21 08:58:00,64.4,36.7,29.95,NNW,338,9.6,11.9,36,0.00,,,0.00,WUHU216HW,2013-08-21 14:58:00,
2013-08-21 08:59:00,64.6,36.9,29.95,NNW,338,10.1,11.9,36,0.00,,,0.00,WUHU216HW,2013-08-21 14:59:00,
2013-08-21 09:00:00,64.6,36.9,29.95,NNW,338,7.6,11.9,36,0.00,,,0.00,WUHU216HW,2013-08-21 15:00:00,
2013-08-21 09:01:00,64.6,36.9,29.95,NW,315,9.8,11.9,36,0.00,,,0.00,WUHU216HW,2013-08-21 15:01:00,
2013-08-21 09:03:00,65.0,37.2,29.95,North,0,10.5,11.9,36,0.00,,,0.00,WUHU216HW,2013-08-21 15:03:00,
2013-08-21 09:04:00,65.2,37.4,29.95,North,0,7.2,11.4,36,0.00,,,0.00,WUHU216HW,2013-08-21 15:04:00,
2013-08-21 09:05:00,65.2,36.6,29.95,NNW,338,9.4,11.2,35,0.00,,,0.00,WUHU216HW,2013-08-21 15:05:00,
2013-08-21 09:06:00,65.3,36.1,29.95,NNW,338,10.7,11.2,34,0.00,,,0.00,WUHU216HW,2013-08-21 15:06:00,
2013-08-21 09:08:00,65.3,36.1,29.95,NNW,338,9.2,11.2,34,0.00,,,0.00,WUHU216HW,2013-08-21 15:08:00,
2013-08-21 09:09:00,65.3,36.1,29.95,NNW,338,10.5,11.2,34,0.00,,,0.00,WUHU216HW,2013-08-21 15:09:00,
2013-08-21 09:10:00,65.5,36.3,29.95,NNW,338,7.6,10.7,34,0.00,,,0.00,WUHU216HW,2013-08-21 15:10:00,
2013-08-21 09:12:00,65.7,36.5,29.95,North,0,8.5,10.7,34,0.00,,,0.00,WUHU216HW,2013-08-21 15:12:00,
2013-08-21 09:13:00,65.7,36.5,29.95,NNW,338,4.9,10.7,34,0.00,,,0.00,WUHU216HW,2013-08-21 15:13:00,
2013-08-21 09:14:00,65.9,36.5,29.95,NNW,338,7.2,10.7,34,0.00,,,0.00,WUHU216HW,2013-08-21 15:14:00,
2013-08-21 09:16:00,65.9,37.3,29.95,North,0,6.7,10.7,35,0.00,,,0.00,WUHU216HW,2013-08-21 15:16:00,
2013-08-21 09:17:00,65.9,36.5,29.95,North,0,6.5,10.5,34,0.00,,,0.00,WUHU216HW,2013-08-21 15:17:00,
2013-08-21 09:18:00,65.9,35.8,29.95,NNW,338,6.0,10.5,33,0.00,,,0.00,WUHU216HW,2013-08-21 15:18:00,
2013-08-21 09:19:00,66.1,36.7,29.95,NNW,338,7.4,10.5,34,0.00,,,0.00,WUHU216HW,2013-08-21 15:19:00,
2013-08-21 09:20:00,66.2,36.9,29.95,NNW,338,9.6,10.5,34,0.00,,,0.00,WUHU216HW,2013-08-21 15:20:00,
2013-08-21 09:21:00,66.2,36.2,29.95,North,0,5.4,10.5,33,0.00,,,0.00,WUHU216HW,2013-08-21 15:21:00,
2013-08-21 09:22:00,66.4,37.1,29.95,North,0,5.6,10.5,34,0.00,,,0.00,WUHU216HW,2013-08-21 15:22:00,
2013-08-21 09:23:00,66.4,37.1,29.95,North,0,6.0,10.5,34,0.00,,,0.00,WUHU216HW,2013-08-21 15:23:00,
2013-08-21 09:24:00,66.6,37.2,29.95,NNW,338,6.5,10.5,34,0.00,,,0.00,WUHU216HW,2013-08-21 15:24:00,
2013-08-21 09:25:00,66.6,37.2,29.95,North,0,7.2,10.5,34,0.00,,,0.00,WUHU216HW,2013-08-21 15:25:00,
2013-08-21 09:26:00,66.8,36.6,29.95,North,0,6.0,10.5,33,0.00,,,0.00,WUHU216HW,2013-08-21 15:26:00,
2013-08-21 09:27:00,66.8,37.4,29.95,NNW,338,6.3,10.5,34,0.00,,,0.00,WUHU216HW,2013-08-21 15:27:00,
2013-08-21 09:28:00,66.8,37.4,29.95,NNW,338,9.4,10.5,34,0.00,,,0.00,WUHU216HW,2013-08-21 15:28:00,
2013-08-21 09:30:00,67.1,36.9,29.95,North,0,6.3,9.6,33,0.00,,,0.00,WUHU216HW,2013-08-21 15:30:00,
2013-08-21 09:31:00,67.1,36.9,29.95,NW,315,7.6,10.1,33,0.00,,,0.00,WUHU216HW,2013-08-21 15:31:00,
2013-08-21 09:32:00,67.3,37.1,29.95,North,0,6.9,10.1,33,0.00,,,0.00,WUHU216HW,2013-08-21 15:32:00,
2013-08-21 09:33:00,67.3,37.1,29.95,WNW,293,7.2,10.1,33,0.00,,,0.00,WUHU216HW,2013-08-21 15:33:00,
2013-08-21 09:35:00,67.7,37.4,29.95,NW,315,6.5,10.1,33,0.00,,,0.00,WUHU216HW,2013-08-21 15:35:00,
2013-08-21 09:37:00,67.9,36.8,29.95,NNW,338,8.5,11.6,32,0.00,,,0.00,WUHU216HW,2013-08-21 15:37:00,
2013-08-21 09:38:00,68.0,37.7,29.95,NW,315,5.4,11.6,33,0.00,,,0.00,WUHU216HW,2013-08-21 15:38:00,
2013-08-21 09:40:00,68.0,36.9,29.95,NW,315,10.1,11.6,32,0.00,,,0.00,WUHU216HW,2013-08-21 15:40:00,
2013-08-21 09:41:00,68.0,36.9,29.95,NNW,338,9.4,11.6,32,0.00,,,0.00,WUHU216HW,2013-08-21 15:41:00,
2013-08-21 09:42:00,68.0,36.9,29.95,NW,315,6.0,11.6,32,0.00,,,0.00,WUHU216HW,2013-08-21 15:42:00,
2013-08-21 09:43:00,68.2,37.1,29.95,NNW,338,8.9,11.6,32,0.00,,,0.00,WUHU216HW,2013-08-21 15:43:00,
2013-08-21 09:45:00,68.4,38.0,29.95,NW,315,8.5,11.6,33,0.00,,,0.00,WUHU216HW,2013-08-21 15:45:00,
2013-08-21 09:46:00,68.4,37.3,29.95,NNW,338,9.8,10.7,32,0.00,,,0.00,WUHU216HW,2013-08-21 15:46:00,
2013-08-21 09:47:00,68.6,37.5,29.95,NNW,338,8.7,10.7,32,0.00,,,0.00,WUHU216HW,2013-08-21 15:47:00,
2013-08-21 09:48:00,68.6,36.7,29.95,NNW,338,6.9,10.7,31,0.00,,,0.00,WUHU216HW,2013-08-21 15:48:00,
2013-08-21 09:49:00,68.6,36.7,29.95,North,0,9.6,10.7,31,0.00,,,0.00,WUHU216HW,2013-08-21 15:49:00,
2013-08-21 09:50:00,68.6,36.7,29.95,NNW,338,9.6,10.7,31,0.00,,,0.00,WUHU216HW,2013-08-21 15:50:00,
2013-08-21 09:52:00,68.8,36.8,29.95,NNW,338,9.2,10.1,31,0.00,,,0.00,WUHU216HW,2013-08-21 15:52:00,
2013-08-21 09:53:00,68.8,36.8,29.95,North,0,7.2,10.1,31,0.00,,,0.00,WUHU216HW,2013-08-21 15:53:00,
2013-08-21 09:54:00,68.8,36.8,29.95,NNW,338,8.1,10.1,31,0.00,,,0.00,WUHU216HW,2013-08-21 15:54:00,
2013-08-21 09:55:00,68.8,36.8,29.95,NW,315,3.6,10.1,31,0.00,,,0.00,WUHU216HW,2013-08-21 15:55:00,
2013-08-21 09:57:00,68.8,37.6,29.95,North,0,6.3,10.1,32,0.00,,,0.00,WUHU216HW,2013-08-21 15:57:00,
2013-08-21 09:58:00,68.8,37.6,29.95,North,0,4.9,10.1,32,0.00,,,0.00,WUHU216HW,2013-08-21 15:58:00,
2013-08-21 09:59:00,68.9,37.0,29.95,North,0,4.7,10.1,31,0.00,,,0.00,WUHU216HW,2013-08-21 15:59:00,
2013-08-21 10:00:00,69.1,36.5,29.95,NNW,338,6.9,10.1,30,0.00,,,0.00,WUHU216HW,2013-08-21 16:00:00,
2013-08-21 10:02:00,69.1,36.5,29.95,NNW,338,4.7,9.2,30,0.00,,,0.00,WUHU216HW,2013-08-21 16:02:00,
2013-08-21 10:03:00,69.1,37.2,29.95,North,0,6.5,9.2,31,0.00,,,0.00,WUHU216HW,2013-08-21 16:03:00,
2013-08-21 10:04:00,69.5,36.7,29.95,NNW,338,8.5,9.2,30,0.00,,,0.00,WUHU216HW,2013-08-21 16:04:00,
2013-08-21 10:05:00,69.7,36.9,29.95,NNW,338,6.9,8.7,30,0.00,,,0.00,WUHU216HW,2013-08-21 16:05:00,
2013-08-21 10:07:00,69.7,36.9,29.95,North,0,6.5,9.2,30,0.00,,,0.00,WUHU216HW,2013-08-21 16:07:00,
2013-08-21 10:08:00,69.7,36.9,29.95,NNW,338,8.9,9.2,30,0.00,,,0.00,WUHU216HW,2013-08-21 16:08:00,
2013-08-21 10:09:00,69.7,36.9,29.95,NNW,338,9.4,9.4,30,0.00,,,0.00,WUHU216HW,2013-08-21 16:09:00,
2013-08-21 10:10:00,69.8,37.1,29.95,NW,315,7.2,10.5,30,0.00,,,0.00,WUHU216HW,2013-08-21 16:10:00,
2013-08-21 10:12:00,70.0,37.3,29.95,North,0,6.5,10.5,30,0.00,,,0.00,WUHU216HW,2013-08-21 16:12:00,
2013-08-21 10:13:00,70.0,37.3,29.95,NNW,338,6.5,10.5,30,0.00,,,0.00,WUHU216HW,2013-08-21 16:13:00,
2013-08-21 10:14:00,70.0,36.3,29.95,NNW,338,11.2,11.2,29,0.00,,,0.00,WUHU216HW,2013-08-21 16:14:00,
2013-08-21 10:15:00,70.2,37.5,29.95,NNW,338,9.2,11.2,30,0.00,,,0.00,WUHU216HW,2013-08-21 16:15:00,
2013-08-21 10:17:00,70.0,37.3,29.95,NNW,338,7.6,11.2,30,0.00,,,0.00,WUHU216HW,2013-08-21 16:17:00,
2013-08-21 10:18:00,70.2,36.4,29.95,NNW,338,7.6,11.2,29,0.00,,,0.00,WUHU216HW,2013-08-21 16:18:00,
2013-08-21 10:19:00,70.0,37.3,29.95,North,0,6.9,11.2,30,0.00,,,0.00,WUHU216HW,2013-08-21 16:19:00,
2013-08-21 10:20:00,70.2,36.4,29.95,North,0,6.9,11.2,29,0.00,,,0.00,WUHU216HW,2013-08-21 16:20:00,
2013-08-21 10:22:00,70.0,37.3,29.95,NNW,338,6.7,11.2,30,0.00,,,0.00,WUHU216HW,2013-08-21 16:22:00,
2013-08-21 10:23:00,69.8,37.1,29.95,NNW,338,6.5,11.2,30,0.00,,,0.00,WUHU216HW,2013-08-21 16:23:00,
2013-08-21 10:25:00,70.0,37.3,29.95,NNW,338,9.8,10.5,30,0.00,,,0.00,WUHU216HW,2013-08-21 16:25:00,
2013-08-21 10:26:00,70.2,36.4,29.95,North,0,8.7,10.5,29,0.00,,,0.00,WUHU216HW,2013-08-21 16:26:00,
2013-08-21 10:27:00,70.2,36.4,29.95,NNW,338,7.8,10.5,29,0.00,,,0.00,WUHU216HW,2013-08-21 16:27:00,
2013-08-21 10:28:00,70.2,36.4,29.95,NNW,338,7.4,10.5,29,0.00,,,0.00,WUHU216HW,2013-08-21 16:28:00,
2013-08-21 10:30:00,70.6,36.7,29.95,NW,315,10.5,10.7,29,0.00,,,0.00,WUHU216HW,2013-08-21 16:30:00,
2013-08-21 10:31:00,70.7,36.9,29.95,NNW,338,6.0,10.7,29,0.00,,,0.00,WUHU216HW,2013-08-21 16:31:00,
2013-08-21 10:32:00,70.9,37.0,29.95,NW,315,8.3,10.7,29,0.00,,,0.00,WUHU216HW,2013-08-21 16:32:00,
2013-08-21 10:33:00,70.9,37.0,29.95,North,0,7.4,10.7,29,0.00,,,0.00,WUHU216HW,2013-08-21 16:33:00,
2013-08-21 10:34:00,70.9,36.0,29.95,NW,315,10.1,10.7,28,0.00,,,0.00,WUHU216HW,2013-08-21 16:34:00,
2013-08-21 10:35:00,70.9,36.0,29.95,NNW,338,10.5,10.7,28,0.00,,,0.00,WUHU216HW,2013-08-21 16:35:00,
2013-08-21 10:36:00,71.1,36.2,29.95,North,0,9.8,10.7,28,0.00,,,0.00,WUHU216HW,2013-08-21 16:36:00,
2013-08-21 10:38:00,71.3,37.4,29.95,North,0,8.5,10.7,29,0.00,,,0.00,WUHU216HW,2013-08-21 16:38:00,
2013-08-21 10:39:00,71.3,36.4,29.95,North,0,6.3,10.7,28,0.00,,,0.00,WUHU216HW,2013-08-21 16:39:00,
2013-08-21 10:40:00,71.3,36.4,29.95,North,0,6.7,10.5,28,0.00,,,0.00,WUHU216HW,2013-08-21 16:40:00,
2013-08-21 10:41:00,71.3,36.4,29.95,NNW,338,7.6,10.5,28,0.00,,,0.00,WUHU216HW,2013-08-21 16:41:00,
2013-08-21 10:43:00,71.3,36.4,29.95,North,0,7.6,10.5,28,0.00,,,0.00,WUHU216HW,2013-08-21 16:43:00,
2013-08-21 10:44:00,71.3,37.4,29.95,NNW,338,5.1,10.5,29,0.00,,,0.00,WUHU216HW,2013-08-21 16:44:00,
2013-08-21 10:45:00,71.5,36.5,29.95,NNW,338,7.6,9.8,28,0.00,,,0.00,WUHU216HW,2013-08-21 16:45:00,
2013-08-21 10:46:00,71.5,36.5,29.95,NNW,338,8.1,9.8,28,0.00,,,0.00,WUHU216HW,2013-08-21 16:46:00,
2013-08-21 10:48:00,71.6,37.7,29.95,NNW,338,11.4,11.4,29,0.00,,,0.00,WUHU216HW,2013-08-21 16:48:00,
2013-08-21 10:50:00,72.0,35.9,29.95,NNW,338,9.4,11.4,27,0.00,,,0.00,WUHU216HW,2013-08-21 16:50:00,
2013-08-21 10:51:00,72.0,36.9,29.95,North,0,6.7,11.4,28,0.00,,,0.00,WUHU216HW,2013-08-21 16:51:00,
2013-08-21 10:53:00,72.0,34.9,29.95,NNW,338,8.5,11.4,26,0.00,,,0.00,WUHU216HW,2013-08-21 16:53:00,
2013-08-21 10:55:00,72.0,36.9,29.95,North,0,6.5,11.4,28,0.00,,,0.00,WUHU216HW,2013-08-21 16:55:00,
2013-08-21 10:56:00,72.2,35.0,29.95,NNW,338,7.2,11.4,26,0.00,,,0.00,WUHU216HW,2013-08-21 16:56:00,
2013-08-21 10:58:00,72.2,35.0,29.95,North,0,9.2,10.5,26,0.00,,,0.00,WUHU216HW,2013-08-21 16:58:00,
2013-08-21 11:00:00,72.5,37.4,29.95,North,0,11.0,11.0,28,0.00,,,0.00,WUHU216HW,2013-08-21 17:00:00,
2013-08-21 11:01:00,72.7,36.6,29.95,NNW,338,8.5,11.0,27,0.00,,,0.00,WUHU216HW,2013-08-21 17:01:00,
2013-08-21 11:03:00,72.7,34.5,29.95,NNW,338,10.5,11.0,25,0.00,,,0.00,WUHU216HW,2013-08-21 17:03:00,
2013-08-21 11:04:00,72.7,34.5,29.95,NW,315,8.1,11.0,25,0.00,,,0.00,WUHU216HW,2013-08-21 17:04:00,
2013-08-21 11:05:00,72.7,34.5,29.95,NNW,338,9.2,11.0,25,0.00,,,0.00,WUHU216HW,2013-08-21 17:05:00,
2013-08-21 11:07:00,72.5,35.4,29.95,North,0,8.5,11.0,26,0.00,,,0.00,WUHU216HW,2013-08-21 17:07:00,
2013-08-21 11:08:00,72.7,34.5,29.95,North,0,5.6,11.0,25,0.00,,,0.00,WUHU216HW,2013-08-21 17:08:00,
2013-08-21 11:09:00,72.5,33.3,29.95,NNW,338,9.6,11.0,24,0.00,,,0.00,WUHU216HW,2013-08-21 17:09:00,
2013-08-21 11:10:00,72.7,34.5,29.95,NNW,338,9.4,10.5,25,0.00,,,0.00,WUHU216HW,2013-08-21 17:10:00,
2013-08-21 11:12:00,72.7,34.5,29.95,North,0,6.5,10.5,25,0.00,,,0.00,WUHU216HW,2013-08-21 17:12:00,
2013-08-21 11:13:00,72.7,33.5,29.95,NNW,338,9.2,10.5,24,0.00,,,0.00,WUHU216HW,2013-08-21 17:13:00,
2013-08-21 11:14:00,72.9,33.7,29.95,NNW,338,9.2,9.6,24,0.00,,,0.00,WUHU216HW,2013-08-21 17:14:00,
2013-08-21 11:16:00,72.9,33.7,29.95,NNW,338,7.8,9.6,24,0.00,,,0.00,WUHU216HW,2013-08-21 17:16:00,
2013-08-21 11:18:00,73.3,34.9,29.95,NW,315,8.7,9.6,25,0.00,,,0.00,WUHU216HW,2013-08-21 17:18:00,
2013-08-21 11:19:00,73.4,35.1,29.95,NW,315,9.4,11.9,25,0.00,,,0.00,WUHU216HW,2013-08-21 17:19:00,
2013-08-21 11:21:00,73.8,34.4,29.95,NNW,338,7.4,11.9,24,0.00,,,0.00,WUHU216HW,2013-08-21 17:21:00,
2013-08-21 11:24:00,74.2,34.8,29.95,NNW,338,6.0,11.9,24,0.00,,,0.00,WUHU216HW,2013-08-21 17:24:00,
2013-08-21 11:25:00,74.3,33.9,29.95,NW,315,6.5,11.9,23,0.00,,,0.00,WUHU216HW,2013-08-21 17:25:00,
2013-08-21 11:26:00,74.5,34.0,29.95,NNW,338,5.8,11.9,23,0.00,,,0.00,WUHU216HW,2013-08-21 17:26:00,
2013-08-21 11:29:00,74.5,34.0,29.95,NNW,338,4.9,11.9,23,0.00,,,0.00,WUHU216HW,2013-08-21 17:29:00,
2013-08-21 11:30:00,74.3,33.9,29.95,North,0,5.1,9.6,23,0.00,,,0.00,WUHU216HW,2013-08-21 17:30:00,
2013-08-21 11:31:00,74.2,33.7,29.95,North,0,7.8,9.6,23,0.00,,,0.00,WUHU216HW,2013-08-21 17:31:00,
2013-08-21 11:34:00,74.2,33.7,29.95,North,0,7.6,9.6,23,0.00,,,0.00,WUHU216HW,2013-08-21 17:34:00,
2013-08-21 11:35:00,74.2,33.7,29.95,NNW,338,11.0,11.0,23,0.00,,,0.00,WUHU216HW,2013-08-21 17:35:00,
2013-08-21 11:36:00,74.3,33.9,29.95,NNW,338,6.9,11.0,23,0.00,,,0.00,WUHU216HW,2013-08-21 17:36:00,
2013-08-21 11:37:00,74.5,34.0,29.95,NW,315,8.1,11.0,23,0.00,,,0.00,WUHU216HW,2013-08-21 17:37:00,
2013-08-21 11:39:00,74.5,34.0,29.95,NNW,338,7.8,11.0,23,0.00,,,0.00,WUHU216HW,2013-08-21 17:39:00,
2013-08-21 11:40:00,74.7,34.1,29.95,NNW,338,6.9,11.0,23,0.00,,,0.00,WUHU216HW,2013-08-21 17:40:00,
2013-08-21 11:42:00,75.1,34.5,29.95,North,0,6.3,11.0,23,0.00,,,0.00,WUHU216HW,2013-08-21 17:42:00,
2013-08-21 11:44:00,74.9,34.3,29.95,NNE,23,6.9,11.0,23,0.00,,,0.00,WUHU216HW,2013-08-21 17:44:00,
2013-08-21 11:45:00,74.7,34.1,29.95,North,0,4.9,11.0,23,0.00,,,0.00,WUHU216HW,2013-08-21 17:45:00,
2013-08-21 11:47:00,74.7,35.2,29.95,NNW,338,8.7,10.5,24,0.00,,,0.00,WUHU216HW,2013-08-21 17:47:00,
2013-08-21 11:49:00,74.9,35.3,29.94,NNW,338,8.1,10.5,24,0.00,,,0.00,WUHU216HW,2013-08-21 17:49:00,
2013-08-21 11:50:00,75.1,34.5,29.95,North,0,4.5,10.5,23,0.00,,,0.00,WUHU216HW,2013-08-21 17:50:00,
2013-08-21 11:52:00,75.2,34.6,29.94,NNW,338,6.7,10.5,23,0.00,,,0.00,WUHU216HW,2013-08-21 17:52:00,
2013-08-21 11:53:00,75.2,34.6,29.94,NNW,338,6.3,10.5,23,0.00,,,0.00,WUHU216HW,2013-08-21 17:53:00,
2013-08-21 11:54:00,75.2,34.6,29.94,NNW,338,7.2,10.5,23,0.00,,,0.00,WUHU216HW,2013-08-21 17:54:00,
2013-08-21 11:55:00,75.2,34.6,29.94,NW,315,3.8,10.5,23,0.00,,,0.00,WUHU216HW,2013-08-21 17:55:00,
2013-08-21 11:56:00,75.2,34.6,29.94,NW,315,6.5,10.5,23,0.00,,,0.00,WUHU216HW,2013-08-21 17:56:00,
2013-08-21 11:57:00,75.2,34.6,29.94,NNW,338,8.1,9.4,23,0.00,,,0.00,WUHU216HW,2013-08-21 17:57:00,
2013-08-21 11:58:00,75.4,34.8,29.94,NNW,338,5.8,9.4,23,0.00,,,0.00,WUHU216HW,2013-08-21 17:58:00,
2013-08-21 11:59:00,75.6,34.9,29.94,NNW,338,8.3,9.6,23,0.00,,,0.00,WUHU216HW,2013-08-21 17:59:00,
2013-08-21 12:01:00,75.6,34.9,29.94,North,0,2.9,9.6,23,0.00,,,0.00,WUHU216HW,2013-08-21 18:01:00,
2013-08-21 12:02:00,75.8,35.0,29.94,NW,315,4.0,9.6,23,0.00,,,0.00,WUHU216HW,2013-08-21 18:02:00,
2013-08-21 12:03:00,76.0,34.1,29.94,NNW,338,8.3,9.6,22,0.00,,,0.00,WUHU216HW,2013-08-21 18:03:00,
2013-08-21 12:05:00,76.0,34.1,29.94,NW,315,4.7,9.6,22,0.00,,,0.00,WUHU216HW,2013-08-21 18:05:00,
2013-08-21 12:06:00,76.1,34.3,29.94,WNW,293,4.0,9.6,22,0.00,,,0.00,WUHU216HW,2013-08-21 18:06:00,
2013-08-21 12:07:00,76.1,34.3,29.94,WNW,293,4.9,9.6,22,0.00,,,0.00,WUHU216HW,2013-08-21 18:07:00,
2013-08-21 12:08:00,76.3,35.5,29.94,WNW,293,4.0,9.6,23,0.00,,,0.00,WUHU216HW,2013-08-21 18:08:00,
2013-08-21 12:10:00,76.7,34.8,29.94,NNW,338,7.6,9.2,22,0.00,,,0.00,WUHU216HW,2013-08-21 18:10:00,
2013-08-21 12:12:00,77.0,35.0,29.94,WNW,293,5.1,9.2,22,0.00,,,0.00,WUHU216HW,2013-08-21 18:12:00,
2013-08-21 12:13:00,77.0,35.0,29.94,NNW,338,4.0,9.2,22,0.00,,,0.00,WUHU216HW,2013-08-21 18:13:00,
2013-08-21 12:15:00,77.2,35.2,29.94,WNW,293,7.2,8.9,22,0.00,,,0.00,WUHU216HW,2013-08-21 18:15:00,
2013-08-21 12:17:00,77.2,34.1,29.94,NW,315,4.7,8.9,21,0.00,,,0.00,WUHU216HW,2013-08-21 18:17:00,
2013-08-21 12:18:00,77.2,35.2,29.93,NNE,23,9.8,9.8,22,0.00,,,0.00,WUHU216HW,2013-08-21 18:18:00,
2013-08-21 12:20:00,77.4,35.3,29.93,NW,315,4.9,9.8,22,0.00,,,0.00,WUHU216HW,2013-08-21 18:20:00,
2013-08-21 12:22:00,77.6,34.4,29.93,North,0,5.8,9.8,21,0.00,,,0.00,WUHU216HW,2013-08-21 18:22:00,
2013-08-21 12:23:00,77.4,34.3,29.93,NNW,338,3.4,9.8,21,0.00,,,0.00,WUHU216HW,2013-08-21 18:23:00,
2013-08-21 12:25:00,77.2,34.1,29.93,NNW,338,5.6,9.8,21,0.00,,,0.00,WUHU216HW,2013-08-21 18:25:00,
2013-08-21 12:27:00,77.0,35.0,29.93,North,0,5.8,9.8,22,0.00,,,0.00,WUHU216HW,2013-08-21 18:27:00,
2013-08-21 12:28:00,77.0,35.0,29.93,NW,315,7.6,9.8,22,0.00,,,0.00,WUHU216HW,2013-08-21 18:28:00,
2013-08-21 12:30:00,77.4,35.3,29.93,NW,315,4.9,9.6,22,0.00,,,0.00,WUHU216HW,2013-08-21 18:30:00,
2013-08-21 12:32:00,77.9,34.8,29.93,NNW,338,9.6,9.6,21,0.00,,,0.00,WUHU216HW,2013-08-21 18:32:00,
2013-08-21 12:33:00,77.9,34.8,29.93,North,0,5.8,9.6,21,0.00,,,0.00,WUHU216HW,2013-08-21 18:33:00,
2013-08-21 12:34:00,77.9,34.8,29.93,North,0,3.1,9.6,21,0.00,,,0.00,WUHU216HW,2013-08-21 18:34:00,
2013-08-21 12:35:00,77.8,35.7,29.93,North,0,7.4,9.6,22,0.00,,,0.00,WUHU216HW,2013-08-21 18:35:00,
2013-08-21 12:37:00,77.8,34.6,29.93,NNW,338,6.3,9.6,21,0.00,,,0.00,WUHU216HW,2013-08-21 18:37:00,
2013-08-21 12:38:00,77.8,34.6,29.93,NNW,338,7.2,9.6,21,0.00,,,0.00,WUHU216HW,2013-08-21 18:38:00,
2013-08-21 12:39:00,77.6,34.4,29.93,North,0,6.3,9.6,21,0.00,,,0.00,WUHU216HW,2013-08-21 18:39:00,
2013-08-21 12:41:00,77.8,34.6,29.93,North,0,5.8,9.6,21,0.00,,,0.00,WUHU216HW,2013-08-21 18:41:00,
2013-08-21 12:42:00,77.8,34.6,29.93,NNW,338,2.5,9.6,21,0.00,,,0.00,WUHU216HW,2013-08-21 18:42:00,
2013-08-21 12:43:00,77.8,34.6,29.93,North,0,2.9,9.6,21,0.00,,,0.00,WUHU216HW,2013-08-21 18:43:00,
2013-08-21 12:44:00,77.8,34.6,29.93,NW,315,9.4,9.4,21,0.00,,,0.00,WUHU216HW,2013-08-21 18:44:00,
2013-08-21 12:46:00,77.9,34.8,29.93,NNW,338,9.4,9.4,21,0.00,,,0.00,WUHU216HW,2013-08-21 18:46:00,
2013-08-21 12:47:00,77.9,34.8,29.93,NW,315,5.8,9.8,21,0.00,,,0.00,WUHU216HW,2013-08-21 18:47:00,
2013-08-21 12:48:00,77.9,34.8,29.93,NNW,338,4.3,9.8,21,0.00,,,0.00,WUHU216HW,2013-08-21 18:48:00,
2013-08-21 12:49:00,78.3,35.0,29.93,NNW,338,7.2,10.5,21,0.00,,,0.00,WUHU216HW,2013-08-21 18:49:00,
2013-08-21 12:51:00,78.3,33.9,29.93,NNW,338,6.9,10.5,20,0.00,,,0.00,WUHU216HW,2013-08-21 18:51:00,
2013-08-21 12:53:00,78.1,34.8,29.93,NNW,338,7.6,10.5,21,0.00,,,0.00,WUHU216HW,2013-08-21 18:53:00,
2013-08-21 12:54:00,77.9,34.8,29.93,NNW,338,7.6,10.5,21,0.00,,,0.00,WUHU216HW,2013-08-21 18:54:00,
2013-08-21 12:56:00,77.9,32.0,29.93,NNW,338,5.6,10.5,19,0.00,,,0.00,WUHU216HW,2013-08-21 18:56:00,
2013-08-21 12:58:00,78.1,34.8,29.93,NW,315,8.1,10.5,21,0.00,,,0.00,WUHU216HW,2013-08-21 18:58:00,
2013-08-21 12:59:00,78.3,35.0,29.93,NW,315,6.0,9.6,21,0.00,,,0.00,WUHU216HW,2013-08-21 18:59:00,
2013-08-21 13:00:00,78.5,32.4,29.93,NNW,338,6.9,9.6,19,0.00,,,0.00,WUHU216HW,2013-08-21 19:00:00,
2013-08-21 13:01:00,78.8,31.1,29.93,NNW,338,5.4,9.6,18,0.00,,,0.00,WUHU216HW,2013-08-21 19:01:00,
2013-08-21 13:03:00,79.0,32.9,29.93,NNW,338,9.2,9.6,19,0.00,,,0.00,WUHU216HW,2013-08-21 19:03:00,
2013-08-21 13:04:00,79.0,32.9,29.92,NNW,338,4.7,9.6,19,0.00,,,0.00,WUHU216HW,2013-08-21 19:04:00,
2013-08-21 13:05:00,79.0,32.9,29.92,NW,315,6.0,10.1,19,0.00,,,0.00,WUHU216HW,2013-08-21 19:05:00,
2013-08-21 13:07:00,79.2,33.0,29.92,North,0,4.7,10.1,19,0.00,,,0.00,WUHU216HW,2013-08-21 19:07:00,
2013-08-21 13:08:00,79.6,33.4,29.92,NW,315,11.4,11.4,19,0.00,,,0.00,WUHU216HW,2013-08-21 19:08:00,
2013-08-21 13:09:00,79.6,33.4,29.92,NNW,338,8.5,11.4,19,0.00,,,0.00,WUHU216HW,2013-08-21 19:09:00,
2013-08-21 13:10:00,79.6,31.7,29.92,North,0,8.5,11.4,18,0.00,,,0.00,WUHU216HW,2013-08-21 19:10:00,
2013-08-21 13:11:00,79.4,31.5,29.92,North,0,3.4,11.4,18,0.00,,,0.00,WUHU216HW,2013-08-21 19:11:00,
2013-08-21 13:12:00,79.2,31.3,29.92,NW,315,7.8,11.4,18,0.00,,,0.00,WUHU216HW,2013-08-21 19:12:00,
2013-08-21 13:13:00,79.4,33.2,29.91,NW,315,6.3,11.4,19,0.00,,,0.00,WUHU216HW,2013-08-21 19:13:00,
2013-08-21 13:14:00,79.4,29.8,29.91,North,0,6.7,11.4,17,0.00,,,0.00,WUHU216HW,2013-08-21 19:14:00,
2013-08-21 13:15:00,79.4,29.8,29.91,North,0,7.8,11.4,17,0.00,,,0.00,WUHU216HW,2013-08-21 19:15:00,
2013-08-21 13:16:00,79.4,29.8,29.91,North,0,5.4,11.4,17,0.00,,,0.00,WUHU216HW,2013-08-21 19:16:00,
2013-08-21 13:17:00,79.6,31.7,29.91,NNW,338,7.6,11.4,18,0.00,,,0.00,WUHU216HW,2013-08-21 19:17:00,
2013-08-21 13:18:00,79.7,28.4,29.91,NNW,338,9.8,11.4,16,0.00,,,0.00,WUHU216HW,2013-08-21 19:18:00,
2013-08-21 13:19:00,79.7,30.2,29.91,North,0,6.5,11.4,17,0.00,,,0.00,WUHU216HW,2013-08-21 19:19:00,
2013-08-21 13:20:00,79.7,30.2,29.91,NNW,338,7.8,11.4,17,0.00,,,0.00,WUHU216HW,2013-08-21 19:20:00,
2013-08-21 13:21:00,79.7,30.2,29.91,NNW,338,7.8,11.4,17,0.00,,,0.00,WUHU216HW,2013-08-21 19:21:00,
2013-08-21 13:22:00,79.9,32.0,29.91,WNW,293,7.4,11.4,18,0.00,,,0.00,WUHU216HW,2013-08-21 19:22:00,
2013-08-21 13:23:00,80.3,32.3,29.91,NNW,338,6.0,11.4,18,0.00,,,0.00,WUHU216HW,2013-08-21 19:23:00,
2013-08-21 13:24:00,80.3,32.3,29.91,NW,315,6.7,11.4,18,0.00,,,0.00,WUHU216HW,2013-08-21 19:24:00,
2013-08-21 13:25:00,80.6,32.6,29.91,NNW,338,6.3,11.4,18,0.00,,,0.00,WUHU216HW,2013-08-21 19:25:00,
2013-08-21 13:26:00,80.8,31.1,29.91,NNW,338,7.8,11.4,17,0.00,,,0.00,WUHU216HW,2013-08-21 19:26:00,
2013-08-21 13:27:00,80.6,32.6,29.91,NNW,338,7.8,9.8,18,0.00,,,0.00,WUHU216HW,2013-08-21 19:27:00,
2013-08-21 13:29:00,80.6,32.6,29.91,North,0,4.3,9.4,18,0.00,,,0.00,WUHU216HW,2013-08-21 19:29:00,
2013-08-21 13:30:00,80.5,32.5,29.91,NNW,338,8.5,9.8,18,0.00,,,0.00,WUHU216HW,2013-08-21 19:30:00,
2013-08-21 13:32:00,80.5,30.8,29.90,North,0,4.5,9.8,17,0.00,,,0.00,WUHU216HW,2013-08-21 19:32:00,
2013-08-21 13:34:00,80.3,32.3,29.91,North,0,4.3,9.8,18,0.00,,,0.00,WUHU216HW,2013-08-21 19:34:00,
2013-08-21 13:35:00,79.9,30.3,29.91,North,0,4.0,9.8,17,0.00,,,0.00,WUHU216HW,2013-08-21 19:35:00,
2013-08-21 13:37:00,79.9,30.3,29.90,North,0,4.0,9.8,17,0.00,,,0.00,WUHU216HW,2013-08-21 19:37:00,
2013-08-21 13:39:00,80.1,32.1,29.90,North,0,4.7,9.8,18,0.00,,,0.00,WUHU216HW,2013-08-21 19:39:00,
2013-08-21 13:42:00,80.3,30.6,29.90,NNW,338,8.1,8.3,17,0.00,,,0.00,WUHU216HW,2013-08-21 19:42:00,
2013-08-21 13:44:00,80.5,30.8,29.90,NW,315,5.1,8.3,17,0.00,,,0.00,WUHU216HW,2013-08-21 19:44:00,
2013-08-21 13:47:00,81.2,31.3,29.90,NW,315,6.5,9.2,17,0.00,,,0.00,WUHU216HW,2013-08-21 19:47:00,
2013-08-21 13:48:00,81.2,31.3,29.90,NW,315,4.7,9.2,17,0.00,,,0.00,WUHU216HW,2013-08-21 19:48:00,
2013-08-21 13:49:00,81.4,31.5,29.90,NW,315,6.9,9.2,17,0.00,,,0.00,WUHU216HW,2013-08-21 19:49:00,
2013-08-21 13:52:00,81.7,31.8,29.90,North,0,2.5,9.2,17,0.00,,,0.00,WUHU216HW,2013-08-21 19:52:00,
2013-08-21 13:53:00,81.7,30.1,29.90,North,0,4.0,9.2,16,0.00,,,0.00,WUHU216HW,2013-08-21 19:53:00,
2013-08-21 13:55:00,81.5,31.7,29.90,NNW,338,4.0,9.2,17,0.00,,,0.00,WUHU216HW,2013-08-21 19:55:00,
2013-08-21 13:57:00,81.7,31.8,29.90,NW,315,4.7,6.9,17,0.00,,,0.00,WUHU216HW,2013-08-21 19:57:00,
2013-08-21 13:58:00,81.7,31.8,29.90,NNW,338,3.1,6.9,17,0.00,,,0.00,WUHU216HW,2013-08-21 19:58:00,
2013-08-21 14:00:00,82.1,30.4,29.90,NNW,338,2.0,6.3,16,0.00,,,0.00,WUHU216HW,2013-08-21 20:00:00,
2013-08-21 14:03:00,81.7,31.8,29.90,NNW,338,6.9,6.9,17,0.00,,,0.00,WUHU216HW,2013-08-21 20:03:00,
2013-08-21 14:05:00,81.4,31.5,29.90,NW,315,4.0,7.8,17,0.00,,,0.00,WUHU216HW,2013-08-21 20:05:00,
2013-08-21 14:08:00,81.5,31.7,29.90,NNW,338,6.9,8.3,17,0.00,,,0.00,WUHU216HW,2013-08-21 20:08:00,
2013-08-21 14:10:00,81.9,32.0,29.90,North,0,3.1,8.5,17,0.00,,,0.00,WUHU216HW,2013-08-21 20:10:00,
2013-08-21 14:13:00,82.4,32.4,29.90,NNE,23,6.0,9.2,17,0.00,,,0.00,WUHU216HW,2013-08-21 20:13:00,
2013-08-21 14:16:00,82.4,32.4,29.89,North,0,4.3,9.2,17,0.00,,,0.00,WUHU216HW,2013-08-21 20:16:00,
2013-08-21 14:18:00,82.6,32.5,29.90,North,0,5.8,9.2,17,0.00,,,0.00,WUHU216HW,2013-08-21 20:18:00,
2013-08-21 14:19:00,82.4,32.4,29.90,North,0,4.5,9.2,17,0.00,,,0.00,WUHU216HW,2013-08-21 20:19:00,
2013-08-21 14:21:00,82.1,32.0,29.90,North,0,4.5,9.2,17,0.00,,,0.00,WUHU216HW,2013-08-21 20:21:00,
2013-08-21 14:23:00,81.9,32.0,29.90,NW,315,5.4,9.2,17,0.00,,,0.00,WUHU216HW,2013-08-21 20:23:00,
2013-08-21 14:24:00,81.9,33.7,29.90,NW,315,5.4,9.2,18,0.00,,,0.00,WUHU216HW,2013-08-21 20:24:00,
2013-08-21 14:26:00,82.1,33.8,29.89,NW,315,0.4,9.2,18,0.00,,,0.00,WUHU216HW,2013-08-21 20:26:00,
2013-08-21 14:28:00,83.0,32.8,29.89,NW,315,7.4,9.8,17,0.00,,,0.00,WUHU216HW,2013-08-21 20:28:00,
2013-08-21 14:29:00,83.2,33.0,29.89,NW,315,4.3,9.8,17,0.00,,,0.00,WUHU216HW,2013-08-21 20:29:00,
2013-08-21 14:31:00,83.7,33.3,29.89,NW,315,5.8,9.8,17,0.00,,,0.00,WUHU216HW,2013-08-21 20:31:00,
2013-08-21 14:33:00,84.2,33.8,29.89,NNW,338,4.5,9.8,17,0.00,,,0.00,WUHU216HW,2013-08-21 20:33:00,
2013-08-21 14:34:00,84.4,32.2,29.89,NNW,338,6.9,9.8,16,0.00,,,0.00,WUHU216HW,2013-08-21 20:34:00,
2013-08-21 14:35:00,84.2,32.0,29.89,NNW,338,5.6,9.8,16,0.00,,,0.00,WUHU216HW,2013-08-21 20:35:00,
2013-08-21 14:36:00,84.1,33.6,29.89,NW,315,5.4,9.8,17,0.00,,,0.00,WUHU216HW,2013-08-21 20:36:00,
2013-08-21 14:38:00,84.1,31.9,29.89,WNW,293,2.7,8.5,16,0.00,,,0.00,WUHU216HW,2013-08-21 20:38:00,
2013-08-21 14:39:00,84.1,31.9,29.89,WNW,293,5.8,8.5,16,0.00,,,0.00,WUHU216HW,2013-08-21 20:39:00,
2013-08-21 14:40:00,84.1,33.6,29.89,NW,315,6.0,8.5,17,0.00,,,0.00,WUHU216HW,2013-08-21 20:40:00,
2013-08-21 14:41:00,84.2,33.8,29.89,WNW,293,6.3,8.5,17,0.00,,,0.00,WUHU216HW,2013-08-21 20:41:00,
2013-08-21 14:44:00,84.2,32.0,29.89,NNE,23,6.9,8.5,16,0.00,,,0.00,WUHU216HW,2013-08-21 20:44:00,
2013-08-21 14:45:00,84.1,33.6,29.89,NNW,338,4.5,8.5,17,0.00,,,0.00,WUHU216HW,2013-08-21 20:45:00,
2013-08-21 14:46:00,83.7,33.3,29.89,North,0,4.0,6.9,17,0.00,,,0.00,WUHU216HW,2013-08-21 20:46:00,
2013-08-21 14:49:00,83.3,31.3,29.88,NNE,23,4.9,6.9,16,0.00,,,0.00,WUHU216HW,2013-08-21 20:49:00,
2013-08-21 14:51:00,83.3,33.0,29.88,North,0,4.3,6.9,17,0.00,,,0.00,WUHU216HW,2013-08-21 20:51:00,
2013-08-21 14:54:00,83.3,33.0,29.88,NW,315,3.8,6.9,17,0.00,,,0.00,WUHU216HW,2013-08-21 20:54:00,
2013-08-21 14:55:00,83.3,33.0,29.88,NW,315,9.8,9.8,17,0.00,,,0.00,WUHU216HW,2013-08-21 20:55:00,
2013-08-21 14:56:00,83.5,33.2,29.88,West,270,5.4,9.8,17,0.00,,,0.00,WUHU216HW,2013-08-21 20:56:00,
2013-08-21 14:57:00,83.5,33.2,29.88,WNW,293,4.0,9.8,17,0.00,,,0.00,WUHU216HW,2013-08-21 20:57:00,
2013-08-21 14:59:00,83.7,31.6,29.88,NNW,338,6.3,9.8,16,0.00,,,0.00,WUHU216HW,2013-08-21 20:59:00,
2013-08-21 15:00:00,83.5,33.2,29.88,North,0,8.5,9.8,17,0.00,,,0.00,WUHU216HW,2013-08-21 21:00:00,
2013-08-21 15:01:00,83.5,31.5,29.88,NNE,23,4.0,9.8,16,0.00,,,0.00,WUHU216HW,2013-08-21 21:01:00,
2013-08-21 15:02:00,83.5,31.5,29.88,North,0,1.8,9.8,16,0.00,,,0.00,WUHU216HW,2013-08-21 21:02:00,
2013-08-21 15:04:00,83.5,33.2,29.88,NW,315,3.4,9.8,17,0.00,,,0.00,WUHU216HW,2013-08-21 21:04:00,
2013-08-21 15:05:00,83.5,33.2,29.87,NNW,338,3.4,8.5,17,0.00,,,0.00,WUHU216HW,2013-08-21 21:05:00,
2013-08-21 15:06:00,83.5,31.5,29.88,NW,315,7.6,8.5,16,0.00,,,0.00,WUHU216HW,2013-08-21 21:06:00,
2013-08-21 15:07:00,83.5,31.5,29.88,NW,315,7.6,8.5,16,0.00,,,0.00,WUHU216HW,2013-08-21 21:07:00,
2013-08-21 15:09:00,83.7,33.3,29.87,NW,315,4.0,8.5,17,0.00,,,0.00,WUHU216HW,2013-08-21 21:09:00,
2013-08-21 15:11:00,83.9,33.5,29.87,NW,315,5.6,7.6,17,0.00,,,0.00,WUHU216HW,2013-08-21 21:11:00,
2013-08-21 15:12:00,84.2,33.8,29.87,West,270,5.8,7.6,17,0.00,,,0.00,WUHU216HW,2013-08-21 21:12:00,
2013-08-21 15:14:00,85.0,32.6,29.87,NW,315,6.5,7.6,16,0.00,,,0.00,WUHU216HW,2013-08-21 21:14:00,
2013-08-21 15:16:00,85.0,32.6,29.87,North,0,4.7,7.6,16,0.00,,,0.00,WUHU216HW,2013-08-21 21:16:00,
2013-08-21 15:17:00,84.8,32.5,29.87,NNW,338,4.9,6.9,16,0.00,,,0.00,WUHU216HW,2013-08-21 21:17:00,
2013-08-21 15:18:00,84.2,32.0,29.87,NW,315,4.7,6.9,16,0.00,,,0.00,WUHU216HW,2013-08-21 21:18:00,
2013-08-21 15:20:00,84.2,33.8,29.87,WNW,293,5.1,6.9,17,0.00,,,0.00,WUHU216HW,2013-08-21 21:20:00,
2013-08-21 15:21:00,84.2,32.0,29.87,NW,315,3.1,6.9,16,0.00,,,0.00,WUHU216HW,2013-08-21 21:21:00,
2013-08-21 15:22:00,84.4,33.9,29.87,NNW,338,0.9,6.9,17,0.00,,,0.00,WUHU216HW,2013-08-21 21:22:00,
2013-08-21 15:23:00,84.6,34.0,29.87,West,270,2.9,6.9,17,0.00,,,0.00,WUHU216HW,2013-08-21 21:23:00,
2013-08-21 15:25:00,84.8,32.5,29.87,WNW,293,3.8,6.9,16,0.00,,,0.00,WUHU216HW,2013-08-21 21:25:00,
2013-08-21 15:26:00,84.8,34.2,29.87,WNW,293,6.7,6.9,17,0.00,,,0.00,WUHU216HW,2013-08-21 21:26:00,
2013-08-21 15:27:00,84.8,32.5,29.87,WNW,293,3.6,6.9,16,0.00,,,0.00,WUHU216HW,2013-08-21 21:27:00,
2013-08-21 15:28:00,85.0,32.6,29.87,North,0,5.4,6.9,16,0.00,,,0.00,WUHU216HW,2013-08-21 21:28:00,
2013-08-21 15:30:00,85.0,34.3,29.87,WNW,293,4.0,6.9,17,0.00,,,0.00,WUHU216HW,2013-08-21 21:30:00,
2013-08-21 15:31:00,85.0,32.6,29.87,NW,315,3.8,6.9,16,0.00,,,0.00,WUHU216HW,2013-08-21 21:31:00,
2013-08-21 15:32:00,85.1,34.5,29.87,NNW,338,3.4,6.9,17,0.00,,,0.00,WUHU216HW,2013-08-21 21:32:00,
2013-08-21 15:33:00,85.1,34.5,29.87,WNW,293,4.0,6.9,17,0.00,,,0.00,WUHU216HW,2013-08-21 21:33:00,
2013-08-21 15:35:00,85.3,33.0,29.87,North,0,5.4,11.2,16,0.00,,,0.00,WUHU216HW,2013-08-21 21:35:00,
2013-08-21 15:36:00,85.3,33.0,29.87,NNW,338,4.3,11.2,16,0.00,,,0.00,WUHU216HW,2013-08-21 21:36:00,
2013-08-21 15:37:00,85.1,32.8,29.87,North,0,3.1,11.2,16,0.00,,,0.00,WUHU216HW,2013-08-21 21:37:00,
2013-08-21 15:38:00,85.1,32.8,29.87,North,0,2.2,11.2,16,0.00,,,0.00,WUHU216HW,2013-08-21 21:38:00,
2013-08-21 15:41:00,85.0,32.6,29.86,North,0,3.4,11.2,16,0.00,,,0.00,WUHU216HW,2013-08-21 21:41:00,
2013-08-21 15:43:00,84.6,32.3,29.86,NNW,338,2.5,11.2,16,0.00,,,0.00,WUHU216HW,2013-08-21 21:43:00,
2013-08-21 15:44:00,84.6,32.3,29.86,North,0,4.5,11.2,16,0.00,,,0.00,WUHU216HW,2013-08-21 21:44:00,
2013-08-21 15:46:00,84.1,33.6,29.86,North,0,2.2,7.2,17,0.00,,,0.00,WUHU216HW,2013-08-21 21:46:00,
2013-08-21 15:48:00,84.2,33.8,29.86,NNW,338,5.4,7.6,17,0.00,,,0.00,WUHU216HW,2013-08-21 21:48:00,
2013-08-21 15:49:00,84.2,33.8,29.86,North,0,5.6,8.1,17,0.00,,,0.00,WUHU216HW,2013-08-21 21:49:00,
2013-08-21 15:51:00,84.6,34.0,29.86,NNW,338,2.0,8.1,17,0.00,,,0.00,WUHU216HW,2013-08-21 21:51:00,
2013-08-21 15:53:00,84.6,34.0,29.86,NW,315,6.3,8.1,17,0.00,,,0.00,WUHU216HW,2013-08-21 21:53:00,
2013-08-21 15:54:00,85.0,32.6,29.86,NW,315,7.4,8.1,16,0.00,,,0.00,WUHU216HW,2013-08-21 21:54:00,
2013-08-21 15:56:00,85.0,32.6,29.86,North,0,6.0,9.8,16,0.00,,,0.00,WUHU216HW,2013-08-21 21:56:00,
2013-08-21 15:59:00,85.0,32.6,29.86,NW,315,3.8,9.8,16,0.00,,,0.00,WUHU216HW,2013-08-21 21:59:00,
2013-08-21 16:01:00,85.5,34.7,29.86,North,0,4.3,9.8,17,0.00,,,0.00,WUHU216HW,2013-08-21 22:01:00,
2013-08-21 16:02:00,85.5,34.7,29.86,North,0,4.3,9.8,17,0.00,,,0.00,WUHU216HW,2013-08-21 22:02:00,
2013-08-21 16:04:00,85.7,33.2,29.86,NNW,338,6.9,9.8,16,0.00,,,0.00,WUHU216HW,2013-08-21 22:04:00,
2013-08-21 16:06:00,85.7,33.2,29.85,NNW,338,4.5,9.4,16,0.00,,,0.00,WUHU216HW,2013-08-21 22:06:00,
2013-08-21 16:07:00,85.7,33.2,29.85,WNW,293,4.7,9.4,16,0.00,,,0.00,WUHU216HW,2013-08-21 22:07:00,
2013-08-21 16:09:00,85.7,33.2,29.85,NNW,338,5.4,8.9,16,0.00,,,0.00,WUHU216HW,2013-08-21 22:09:00,
2013-08-21 16:11:00,85.7,33.2,29.85,North,0,5.6,8.9,16,0.00,,,0.00,WUHU216HW,2013-08-21 22:11:00,
2013-08-21 16:12:00,85.5,33.0,29.85,NNW,338,5.8,8.9,16,0.00,,,0.00,WUHU216HW,2013-08-21 22:12:00,
2013-08-21 16:14:00,85.5,33.0,29.85,NNW,338,6.9,8.1,16,0.00,,,0.00,WUHU216HW,2013-08-21 22:14:00,
2013-08-21 16:17:00,85.5,33.0,29.85,North,0,2.7,8.5,16,0.00,,,0.00,WUHU216HW,2013-08-21 22:17:00,
2013-08-21 16:19:00,85.5,33.0,29.85,WNW,293,8.3,9.2,16,0.00,,,0.00,WUHU216HW,2013-08-21 22:19:00,
2013-08-21 16:20:00,85.5,34.7,29.85,WNW,293,8.3,9.2,17,0.00,,,0.00,WUHU216HW,2013-08-21 22:20:00,
2013-08-21 16:22:00,85.5,34.7,29.85,NNW,338,6.5,9.2,17,0.00,,,0.00,WUHU216HW,2013-08-21 22:22:00,
2013-08-21 16:24:00,85.3,34.7,29.85,NW,315,6.7,9.2,17,0.00,,,0.00,WUHU216HW,2013-08-21 22:24:00,
2013-08-21 16:25:00,85.3,34.7,29.85,NW,315,6.7,9.2,17,0.00,,,0.00,WUHU216HW,2013-08-21 22:25:00,
2013-08-21 16:27:00,85.3,34.7,29.85,WNW,293,3.1,9.2,17,0.00,,,0.00,WUHU216HW,2013-08-21 22:27:00,
2013-08-21 16:28:00,85.3,34.7,29.85,North,0,4.0,9.2,17,0.00,,,0.00,WUHU216HW,2013-08-21 22:28:00,
2013-08-21 16:30:00,85.7,33.2,29.85,West,270,4.0,8.9,16,0.00,,,0.00,WUHU216HW,2013-08-21 22:30:00,
2013-08-21 16:32:00,85.9,33.3,29.85,NNW,338,5.6,8.9,16,0.00,,,0.00,WUHU216HW,2013-08-21 22:32:00,
2013-08-21 16:33:00,85.9,33.3,29.85,North,0,4.0,8.9,16,0.00,,,0.00,WUHU216HW,2013-08-21 22:33:00,
2013-08-21 16:35:00,85.9,33.3,29.85,North,0,4.5,8.9,16,0.00,,,0.00,WUHU216HW,2013-08-21 22:35:00,
2013-08-21 16:37:00,85.3,33.0,29.85,NNW,338,8.9,9.2,16,0.00,,,0.00,WUHU216HW,2013-08-21 22:37:00,
2013-08-21 16:38:00,85.3,33.0,29.85,NNW,338,8.5,9.2,16,0.00,,,0.00,WUHU216HW,2013-08-21 22:38:00,
2013-08-21 16:40:00,85.3,33.0,29.84,NNW,338,7.6,9.2,16,0.00,,,0.00,WUHU216HW,2013-08-21 22:40:00,
2013-08-21 16:42:00,85.0,34.3,29.85,NW,315,5.4,9.2,17,0.00,,,0.00,WUHU216HW,2013-08-21 22:42:00,
2013-08-21 16:43:00,85.0,34.3,29.85,NW,315,5.4,9.2,17,0.00,,,0.00,WUHU216HW,2013-08-21 22:43:00,
2013-08-21 16:45:00,85.1,34.5,29.84,North,0,3.4,9.2,17,0.00,,,0.00,WUHU216HW,2013-08-21 22:45:00,
2013-08-21 16:47:00,85.0,34.3,29.84,NE,45,4.5,9.2,17,0.00,,,0.00,WUHU216HW,2013-08-21 22:47:00,
2013-08-21 16:48:00,85.0,34.3,29.84,NNE,23,4.9,9.2,17,0.00,,,0.00,WUHU216HW,2013-08-21 22:48:00,
2013-08-21 16:50:00,85.1,34.5,29.84,NW,315,6.3,8.5,17,0.00,,,0.00,WUHU216HW,2013-08-21 22:50:00,
2013-08-21 16:51:00,85.1,34.5,29.84,NW,315,6.3,8.1,17,0.00,,,0.00,WUHU216HW,2013-08-21 22:51:00,
2013-08-21 16:52:00,85.5,33.0,29.84,North,0,2.0,8.9,16,0.00,,,0.00,WUHU216HW,2013-08-21 22:52:00,
2013-08-21 16:53:00,85.3,34.7,29.84,NW,315,5.4,8.9,17,0.00,,,0.00,WUHU216HW,2013-08-21 22:53:00,
2013-08-21 16:55:00,85.3,34.7,29.84,NNW,338,3.1,8.9,17,0.00,,,0.00,WUHU216HW,2013-08-21 22:55:00,
2013-08-21 16:56:00,85.3,34.7,29.84,NW,315,2.2,8.9,17,0.00,,,0.00,WUHU216HW,2013-08-21 22:56:00,
2013-08-21 16:58:00,85.9,35.0,29.84,North,0,4.0,8.9,17,0.00,,,0.00,WUHU216HW,2013-08-21 22:58:00,
2013-08-21 17:00:00,85.9,33.3,29.84,NNW,338,6.9,8.9,16,0.00,,,0.00,WUHU216HW,2013-08-21 23:00:00,
2013-08-21 17:01:00,85.9,33.3,29.84,WNW,293,4.3,8.9,16,0.00,,,0.00,WUHU216HW,2013-08-21 23:01:00,
2013-08-21 17:03:00,85.7,34.9,29.84,North,0,6.3,6.9,17,0.00,,,0.00,WUHU216HW,2013-08-21 23:03:00,
2013-08-21 17:05:00,85.7,34.9,29.83,North,0,3.8,7.2,17,0.00,,,0.00,WUHU216HW,2013-08-21 23:05:00,
2013-08-21 17:06:00,85.9,35.0,29.83,NW,315,6.0,7.2,17,0.00,,,0.00,WUHU216HW,2013-08-21 23:06:00,
2013-08-21 17:08:00,86.0,33.5,29.83,North,0,3.4,7.2,16,0.00,,,0.00,WUHU216HW,2013-08-21 23:08:00,
2013-08-21 17:10:00,86.0,35.2,29.83,North,0,4.0,7.2,17,0.00,,,0.00,WUHU216HW,2013-08-21 23:10:00,
2013-08-21 17:11:00,86.0,33.5,29.83,North,0,4.0,7.2,16,0.00,,,0.00,WUHU216HW,2013-08-21 23:11:00,
2013-08-21 17:13:00,85.7,33.2,29.83,NNW,338,8.5,8.5,16,0.00,,,0.00,WUHU216HW,2013-08-21 23:13:00,
2013-08-21 17:14:00,85.7,33.2,29.82,NNW,338,9.6,9.8,16,0.00,,,0.00,WUHU216HW,2013-08-21 23:14:00,
2013-08-21 17:15:00,85.7,33.2,29.83,NNW,338,6.5,9.8,16,0.00,,,0.00,WUHU216HW,2013-08-21 23:15:00,
2013-08-21 17:16:00,85.5,33.0,29.83,NNW,338,10.5,10.5,16,0.00,,,0.00,WUHU216HW,2013-08-21 23:16:00,
2013-08-21 17:18:00,85.3,33.0,29.82,NW,315,2.9,10.5,16,0.00,,,0.00,WUHU216HW,2013-08-21 23:18:00,
2013-08-21 17:19:00,85.3,33.0,29.82,NNW,338,6.9,10.5,16,0.00,,,0.00,WUHU216HW,2013-08-21 23:19:00,
2013-08-21 17:20:00,85.3,34.7,29.82,NNW,338,5.4,10.5,17,0.00,,,0.00,WUHU216HW,2013-08-21 23:20:00,
2013-08-21 17:21:00,85.3,33.0,29.82,NW,315,2.7,10.5,16,0.00,,,0.00,WUHU216HW,2013-08-21 23:21:00,
2013-08-21 17:23:00,85.5,34.7,29.82,NW,315,4.3,10.5,17,0.00,,,0.00,WUHU216HW,2013-08-21 23:23:00,
2013-08-21 17:24:00,85.7,34.9,29.82,NNW,338,2.7,10.5,17,0.00,,,0.00,WUHU216HW,2013-08-21 23:24:00,
2013-08-21 17:26:00,85.7,33.2,29.82,North,0,3.1,10.5,16,0.00,,,0.00,WUHU216HW,2013-08-21 23:26:00,
2013-08-21 17:28:00,85.5,34.7,29.82,North,0,4.5,7.2,17,0.00,,,0.00,WUHU216HW,2013-08-21 23:28:00,
2013-08-21 17:29:00,85.5,34.7,29.82,North,0,4.9,7.2,17,0.00,,,0.00,WUHU216HW,2013-08-21 23:29:00,
2013-08-21 17:31:00,85.3,34.7,29.82,NNW,338,4.7,7.2,17,0.00,,,0.00,WUHU216HW,2013-08-21 23:31:00,
2013-08-21 17:32:00,85.3,34.7,29.82,North,0,4.7,7.2,17,0.00,,,0.00,WUHU216HW,2013-08-21 23:32:00,
2013-08-21 17:33:00,85.3,33.0,29.82,North,0,7.8,7.8,16,0.00,,,0.00,WUHU216HW,2013-08-21 23:33:00,
2013-08-21 17:34:00,85.5,33.0,29.82,North,0,6.3,8.9,16,0.00,,,0.00,WUHU216HW,2013-08-21 23:34:00,
2013-08-21 17:36:00,85.5,33.0,29.82,NNE,23,6.0,8.9,16,0.00,,,0.00,WUHU216HW,2013-08-21 23:36:00,
2013-08-21 17:37:00,85.7,33.2,29.82,NNE,23,3.8,8.9,16,0.00,,,0.00,WUHU216HW,2013-08-21 23:37:00,
2013-08-21 17:39:00,85.9,35.0,29.82,NNW,338,1.1,8.9,17,0.00,,,0.00,WUHU216HW,2013-08-21 23:39:00,
2013-08-21 17:41:00,86.4,35.5,29.82,NW,315,1.1,8.9,17,0.00,,,0.00,WUHU216HW,2013-08-21 23:41:00,
2013-08-21 17:42:00,86.6,33.9,29.82,North,0,3.4,8.9,16,0.00,,,0.00,WUHU216HW,2013-08-21 23:42:00,
2013-08-21 17:44:00,86.8,34.1,29.82,NNW,338,4.7,6.7,16,0.00,,,0.00,WUHU216HW,2013-08-21 23:44:00,
2013-08-21 17:45:00,86.9,32.6,29.82,NNW,338,4.0,6.7,15,0.00,,,0.00,WUHU216HW,2013-08-21 23:45:00,
2013-08-21 17:46:00,86.8,32.4,29.82,North,0,5.4,6.7,15,0.00,,,0.00,WUHU216HW,2013-08-21 23:46:00,
2013-08-21 17:47:00,86.4,33.8,29.82,NNW,338,5.8,7.4,16,0.00,,,0.00,WUHU216HW,2013-08-21 23:47:00,
2013-08-21 17:49:00,86.0,33.5,29.82,NNW,338,5.4,7.4,16,0.00,,,0.00,WUHU216HW,2013-08-21 23:49:00,
2013-08-21 17:50:00,85.9,33.3,29.82,NNW,338,5.4,7.4,16,0.00,,,0.00,WUHU216HW,2013-08-21 23:50:00,
2013-08-21 17:51:00,85.7,33.2,29.82,NW,315,7.8,7.8,16,0.00,,,0.00,WUHU216HW,2013-08-21 23:51:00,
2013-08-21 17:52:00,85.9,33.3,29.82,NNW,338,9.2,9.2,16,0.00,,,0.00,WUHU216HW,2013-08-21 23:52:00,
2013-08-21 17:54:00,85.7,33.2,29.82,North,0,4.7,9.2,16,0.00,,,0.00,WUHU216HW,2013-08-21 23:54:00,
2013-08-21 17:55:00,85.7,33.2,29.82,NNW,338,4.3,9.2,16,0.00,,,0.00,WUHU216HW,2013-08-21 23:55:00,
2013-08-21 17:56:00,85.3,33.0,29.82,NNW,338,5.4,9.2,16,0.00,,,0.00,WUHU216HW,2013-08-21 23:56:00,
2013-08-21 17:57:00,85.3,33.0,29.82,NNW,338,6.3,9.2,16,0.00,,,0.00,WUHU216HW,2013-08-21 23:57:00,
2013-08-21 17:58:00,85.3,33.0,29.82,NNW,338,6.3,9.2,16,0.00,,,0.00,WUHU216HW,2013-08-21 23:58:00,
2013-08-21 17:59:00,85.7,33.2,29.82,North,0,4.3,9.2,16,0.00,,,0.00,WUHU216HW,2013-08-21 23:59:00,
2013-08-21 18:00:00,85.7,33.2,29.82,NNW,338,3.8,9.2,16,0.00,,,0.00,WUHU216HW,2013-08-22 00:00:00,
2013-08-21 18:01:00,85.7,33.2,29.82,NW,315,6.3,9.2,16,0.00,,,0.00,WUHU216HW,2013-08-22 00:01:00,
2013-08-21 18:03:00,86.0,33.5,29.82,NNW,338,1.1,7.6,16,0.00,,,0.00,WUHU216HW,2013-08-22 00:03:00,
2013-08-21 18:05:00,86.4,33.8,29.82,North,0,5.6,7.6,16,0.00,,,0.00,WUHU216HW,2013-08-22 00:05:00,
2013-08-21 18:06:00,86.0,33.5,29.81,NNW,338,6.3,6.9,16,0.00,,,0.00,WUHU216HW,2013-08-22 00:06:00,
2013-08-21 18:08:00,85.9,33.3,29.81,NNW,338,4.0,6.9,16,0.00,,,0.00,WUHU216HW,2013-08-22 00:08:00,
2013-08-21 18:10:00,86.0,33.5,29.79,NNW,338,5.8,6.9,16,0.00,,,0.00,WUHU216HW,2013-08-22 00:10:00,
2013-08-21 18:11:00,86.0,33.5,29.81,NW,315,4.3,7.6,16,0.00,,,0.00,WUHU216HW,2013-08-22 00:11:00,
2013-08-21 18:12:00,86.4,34.9,29.81,NW,315,4.9,7.4,16,0.00,,,0.00,WUHU216HW,2013-08-22 00:12:00,
2013-08-21 18:13:00,86.4,34.9,29.81,NW,315,4.9,7.6,16,0.00,,,0.00,WUHU216HW,2013-08-22 00:13:00,
2013-08-21 18:15:00,86.4,34.9,29.81,NW,315,4.9,7.6,16,0.00,,,0.00,WUHU216HW,2013-08-22 00:15:00,
2013-08-21 18:16:00,86.4,34.9,29.81,NW,315,4.9,7.6,16,0.00,,,0.00,WUHU216HW,2013-08-22 00:16:00,
2013-08-21 18:18:00,86.4,34.9,29.81,NW,315,4.9,7.6,16,0.00,,,0.00,WUHU216HW,2013-08-22 00:18:00,
2013-08-21 18:20:00,86.4,34.9,29.81,NW,315,4.9,7.6,16,0.00,,,0.00,WUHU216HW,2013-08-22 00:20:00,
2013-08-21 18:21:00,86.4,34.9,29.81,NW,315,4.9,7.6,16,0.00,,,0.00,WUHU216HW,2013-08-22 00:21:00,
2013-08-21 19:00:00,87.3,32.9,29.82,NNW,338,6.7,6.7,15,0.00,,,0.00,WUHU216HW,2013-08-22 01:00:00,
2013-08-21 19:05:00,87.3,34.6,29.81,NNW,338,5.4,7.2,16,0.00,,,0.00,WUHU216HW,2013-08-22 01:05:00,
2013-08-21 19:06:00,86.9,34.3,29.81,NNW,338,6.9,7.2,16,0.00,,,0.00,WUHU216HW,2013-08-22 01:06:00,
2013-08-21 19:07:00,86.8,35.2,29.81,North,0,4.9,6.0,16,0.00,,,0.00,WUHU216HW,2013-08-22 01:07:00,
2013-08-21 19:10:00,86.8,35.2,29.81,North,0,4.9,7.2,16,0.00,,,0.00,WUHU216HW,2013-08-22 01:10:00,
2013-08-21 19:11:00,86.8,35.2,29.81,North,0,4.9,7.2,16,0.00,,,0.00,WUHU216HW,2013-08-22 01:11:00,
2013-08-21 19:15:00,86.8,35.2,29.81,North,0,4.9,6.9,16,0.00,,,0.00,WUHU216HW,2013-08-22 01:15:00,
2013-08-21 19:16:00,86.8,35.2,29.81,North,0,4.9,6.9,16,0.00,,,0.00,WUHU216HW,2013-08-22 01:16:00,
2013-08-21 20:00:00,79.6,36.1,29.84,NW,315,4.9,4.9,21,0.00,,,0.00,WUHU216HW,2013-08-22 02:00:00,
2013-08-21 20:05:00,78.7,35.3,29.82,WNW,293,4.5,4.9,21,0.00,,,0.00,WUHU216HW,2013-08-22 02:05:00,
2013-08-21 20:10:00,77.9,35.9,29.58,WNW,293,5.8,5.8,22,0.00,,,0.00,WUHU216HW,2013-08-22 02:10:00,
2013-08-21 20:11:00,77.8,35.7,29.58,WNW,293,6.9,6.9,22,0.00,,,0.00,WUHU216HW,2013-08-22 02:11:00,
2013-08-21 20:15:00,77.8,35.7,29.57,WNW,293,6.3,6.9,22,0.00,,,0.00,WUHU216HW,2013-08-22 02:15:00,
2013-08-21 20:16:00,77.8,35.7,29.57,WNW,293,6.3,6.9,22,0.00,,,0.00,WUHU216HW,2013-08-22 02:16:00,
2013-08-21 20:20:00,77.8,35.7,29.57,WNW,293,6.3,6.9,22,0.00,,,0.00,WUHU216HW,2013-08-22 02:20:00,
2013-08-21 20:21:00,77.8,35.7,29.57,WNW,293,6.3,6.9,22,0.00,,,0.00,WUHU216HW,2013-08-22 02:21:00,
2013-08-21 21:00:00,73.4,35.1,29.87,NW,315,3.4,3.4,25,0.00,,,0.00,WUHU216HW,2013-08-22 03:00:00,
2013-08-21 21:05:00,72.9,34.7,29.84,WNW,293,4.7,6.0,25,0.00,,,0.00,WUHU216HW,2013-08-22 03:05:00,
2013-08-21 21:06:00,72.9,34.7,29.84,WNW,293,5.4,6.0,25,0.00,,,0.00,WUHU216HW,2013-08-22 03:06:00,
2013-08-21 21:10:00,73.1,34.8,29.78,West,270,4.7,6.0,25,0.00,,,0.00,WUHU216HW,2013-08-22 03:10:00,
2013-08-21 21:11:00,72.9,34.7,29.78,WNW,293,5.4,6.0,25,0.00,,,0.00,WUHU216HW,2013-08-22 03:11:00,
2013-08-21 21:15:00,72.9,34.9,29.84,WNW,293,5.4,5.4,25,0.00,,,0.00,WUHU216HW,2013-08-22 03:15:00,
2013-08-21 21:16:00,72.9,34.9,29.84,WNW,293,5.4,5.4,25,0.00,,,0.00,WUHU216HW,2013-08-22 03:16:00,
2013-08-21 21:17:00,72.9,34.9,29.84,WNW,293,5.4,5.4,25,0.00,,,0.00,WUHU216HW,2013-08-22 03:17:00,
2013-08-21 21:21:00,72.9,34.9,29.84,WNW,293,5.4,5.4,25,0.00,,,0.00,WUHU216HW,2013-08-22 03:21:00,
2013-08-21 22:00:00,70.6,35.7,29.87,WSW,248,7.6,7.6,28,0.00,,,0.00,WUHU216HW,2013-08-22 04:00:00,
2013-08-21 22:01:00,70.4,35.6,29.87,WSW,248,9.6,9.6,28,0.00,,,0.00,WUHU216HW,2013-08-22 04:01:00,
2013-08-21 22:05:00,70.0,35.2,29.86,West,270,6.9,8.3,28,0.00,,,0.00,WUHU216HW,2013-08-22 04:05:00,
2013-08-21 22:06:00,70.0,35.2,29.86,West,270,6.9,10.3,28,0.00,,,0.00,WUHU216HW,2013-08-22 04:06:00,
2013-08-21 22:11:00,70.0,35.2,29.86,West,270,6.9,10.3,28,0.00,,,0.00,WUHU216HW,2013-08-22 04:11:00,
2013-08-21 22:12:00,70.0,35.2,29.86,West,270,6.9,10.3,28,0.00,,,0.00,WUHU216HW,2013-08-22 04:12:00,
2013-08-21 23:00:00,68.6,36.7,29.89,West,270,2.9,2.9,31,0.00,,,0.00,WUHU216HW,2013-08-22 05:00:00,
2013-08-21 23:03:00,68.4,36.6,29.87,West,270,2.9,3.8,31,0.00,,,0.00,WUHU216HW,2013-08-22 05:03:00,
2013-08-21 23:05:00,68.4,36.6,29.87,West,270,2.9,4.0,31,0.00,,,0.00,WUHU216HW,2013-08-22 05:05:00,
2013-08-21 23:06:00,68.4,36.6,29.87,West,270,2.9,4.0,31,0.00,,,0.00,WUHU216HW,2013-08-22 05:06:00,
2013-08-21 23:10:00,68.4,36.6,29.87,West,270,2.9,4.0,31,0.00,,,0.00,WUHU216HW,2013-08-22 05:10:00,
2013-08-21 23:11:00,68.4,36.6,29.87,West,270,2.9,4.0,31,0.00,,,0.00,WUHU216HW,2013-08-22 05:11:00,